Time,TemperatureF,DewpointF,PressureIn,WindDirection,WindDirectionDegrees,WindSpeedMPH,WindSpeedGustMPH,Humidity,HourlyPrecipIn,Conditions,Clouds,dailyrainin,SolarRadiationWatts/m^2,SoftwareType,DateUTC
2013-05-29 00:00:00,68.8,65.7,29.64,SE,142,2.0,3.0,90,0.00,,,0.00,0,Wunderground v.1.15,2013-05-29 05:00:00,
2013-05-29 00:05:00,68.4,65.7,29.64,SE,143,4.0,4.0,91,0.00,,,0.00,0,Wunderground v.1.15,2013-05-29 05:05:00,
2013-05-29 00:06:00,68.3,65.6,29.65,SE,144,2.0,4.0,91,0.00,,,0.00,0,Wunderground v.1.15,2013-05-29 05:06:00,
2013-05-29 00:07:00,68.3,65.6,29.65,SE,144,3.0,4.0,91,0.00,,,0.00,0,Wunderground v.1.15,2013-05-29 05:07:00,
2013-05-29 00:09:00,68.2,65.5,29.65,SE,145,4.0,4.0,91,0.00,,,0.00,0,Wunderground v.1.15,2013-05-29 05:09:00,
2013-05-29 00:13:00,68.1,65.7,29.66,SE,142,7.0,7.0,92,0.00,,,0.00,0,Wunderground v.1.15,2013-05-29 05:13:00,
2013-05-29 00:15:00,68.1,65.7,29.66,SE,142,5.0,8.0,92,0.00,,,0.00,0,Wunderground v.1.15,2013-05-29 05:15:00,
2013-05-29 00:16:00,68.1,65.7,29.66,ESE,113,7.0,8.0,92,0.00,,,0.00,0,Wunderground v.1.15,2013-05-29 05:16:00,
2013-05-29 00:18:00,68.2,65.5,29.66,ESE,123,10.0,10.0,91,0.00,,,0.00,0,Wunderground v.1.15,2013-05-29 05:18:00,
2013-05-29 00:19:00,68.3,65.6,29.66,ESE,123,7.0,10.0,91,0.00,,,0.00,0,Wunderground v.1.15,2013-05-29 05:19:00,
2013-05-29 00:20:00,68.3,65.6,29.66,ESE,119,10.0,10.0,91,0.00,,,0.00,0,Wunderground v.1.15,2013-05-29 05:20:00,
2013-05-29 00:21:00,68.4,65.7,29.66,ESE,123,9.0,10.0,91,0.00,,,0.00,0,Wunderground v.1.15,2013-05-29 05:21:00,
2013-05-29 00:23:00,68.4,65.4,29.66,SE,138,9.0,13.0,90,0.00,,,0.00,0,Wunderground v.1.15,2013-05-29 05:23:00,
2013-05-29 00:26:00,68.5,65.1,29.66,ESE,112,8.0,13.0,89,0.00,,,0.00,0,Wunderground v.1.15,2013-05-29 05:26:00,
2013-05-29 00:30:00,68.5,64.8,29.65,ESE,121,9.0,9.0,88,0.00,,,0.00,0,Wunderground v.1.15,2013-05-29 05:30:00,
2013-05-29 00:31:00,68.5,64.8,29.65,SE,132,12.0,12.0,88,0.00,,,0.00,0,Wunderground v.1.15,2013-05-29 05:31:00,
2013-05-29 00:32:00,68.5,64.5,29.65,SE,126,9.0,12.0,87,0.00,,,0.00,0,Wunderground v.1.15,2013-05-29 05:32:00,
2013-05-29 00:35:00,68.6,64.2,29.65,SE,125,10.0,12.0,86,0.00,,,0.00,0,Wunderground v.1.15,2013-05-29 05:35:00,
2013-05-29 00:37:00,68.6,64.2,29.65,SSE,157,10.0,12.0,86,0.00,,,0.00,0,Wunderground v.1.15,2013-05-29 05:37:00,
2013-05-29 00:40:00,68.6,64.2,29.65,SE,135,11.0,11.0,86,0.00,,,0.00,0,Wunderground v.1.15,2013-05-29 05:40:00,
2013-05-29 00:42:00,68.5,64.1,29.65,SE,142,6.0,12.0,86,0.00,,,0.00,0,Wunderground v.1.15,2013-05-29 05:42:00,
2013-05-29 00:45:00,68.4,63.7,29.65,SE,142,12.0,12.0,85,0.00,,,0.00,0,Wunderground v.1.15,2013-05-29 05:45:00,
2013-05-29 00:49:00,68.2,63.9,29.65,SE,141,10.0,12.0,86,0.00,,,0.00,0,Wunderground v.1.15,2013-05-29 05:49:00,
2013-05-29 00:50:00,68.1,63.8,29.65,SE,146,8.0,9.0,86,0.00,,,0.00,0,Wunderground v.1.15,2013-05-29 05:50:00,
2013-05-29 00:51:00,68.1,63.8,29.65,SE,140,6.0,9.0,86,0.00,,,0.00,0,Wunderground v.1.15,2013-05-29 05:51:00,
2013-05-29 00:52:00,68.0,63.7,29.65,SSE,151,10.0,10.0,86,0.00,,,0.00,0,Wunderground v.1.15,2013-05-29 05:52:00,
2013-05-29 00:55:00,67.8,63.5,29.65,SE,140,7.0,12.0,86,0.00,,,0.00,0,Wunderground v.1.15,2013-05-29 05:55:00,
2013-05-29 00:56:00,67.8,63.5,29.65,SSE,150,10.0,12.0,86,0.00,,,0.00,0,Wunderground v.1.15,2013-05-29 05:56:00,
2013-05-29 00:58:00,67.8,63.5,29.66,SE,131,7.0,12.0,86,0.00,,,0.00,0,Wunderground v.1.15,2013-05-29 05:58:00,
2013-05-29 00:59:00,67.7,63.4,29.66,SE,144,7.0,12.0,86,0.00,,,0.00,0,Wunderground v.1.15,2013-05-29 05:59:00,
2013-05-29 01:02:00,67.6,63.6,29.66,SSE,147,6.0,9.0,87,0.00,,,0.00,0,Wunderground v.1.15,2013-05-29 06:02:00,
2013-05-29 01:04:00,67.4,63.4,29.66,SE,144,7.0,10.0,87,0.00,,,0.00,0,Wunderground v.1.15,2013-05-29 06:04:00,
2013-05-29 01:06:00,67.4,63.4,29.66,SSE,156,8.0,10.0,87,0.00,,,0.00,0,Wunderground v.1.15,2013-05-29 06:06:00,
2013-05-29 01:07:00,67.3,63.3,29.66,SE,142,7.0,10.0,87,0.00,,,0.00,0,Wunderground v.1.15,2013-05-29 06:07:00,
2013-05-29 01:10:00,67.3,63.3,29.66,SSE,154,5.0,8.0,87,0.00,,,0.00,0,Wunderground v.1.15,2013-05-29 06:10:00,
2013-05-29 01:13:00,67.2,63.2,29.66,SSE,147,7.0,10.0,87,0.00,,,0.00,0,Wunderground v.1.15,2013-05-29 06:13:00,
2013-05-29 01:14:00,67.2,63.2,29.66,SSE,162,6.0,10.0,87,0.00,,,0.00,0,Wunderground v.1.15,2013-05-29 06:14:00,
2013-05-29 01:18:00,67.0,63.3,29.66,SE,140,8.0,10.0,88,0.00,,,0.00,0,Wunderground v.1.15,2013-05-29 06:18:00,
2013-05-29 01:19:00,66.9,63.2,29.66,SE,144,8.0,10.0,88,0.00,,,0.00,0,Wunderground v.1.15,2013-05-29 06:19:00,
2013-05-29 01:21:00,66.8,63.1,29.65,SSE,159,6.0,9.0,88,0.00,,,0.00,0,Wunderground v.1.15,2013-05-29 06:21:00,
2013-05-29 01:24:00,66.8,63.1,29.65,SE,145,7.0,9.0,88,0.00,,,0.00,0,Wunderground v.1.15,2013-05-29 06:24:00,
2013-05-29 01:25:00,66.8,63.1,29.65,SE,138,5.0,9.0,88,0.00,,,0.00,0,Wunderground v.1.15,2013-05-29 06:25:00,
2013-05-29 01:27:00,66.8,63.1,29.65,SSE,150,6.0,9.0,88,0.00,,,0.00,0,Wunderground v.1.15,2013-05-29 06:27:00,
2013-05-29 01:29:00,66.7,63.0,29.64,SE,141,5.0,9.0,88,0.00,,,0.00,0,Wunderground v.1.15,2013-05-29 06:29:00,
2013-05-29 01:31:00,66.7,63.0,29.64,SE,143,5.0,6.0,88,0.00,,,0.00,0,Wunderground v.1.15,2013-05-29 06:31:00,
2013-05-29 01:33:00,66.6,62.9,29.64,SE,142,8.0,8.0,88,0.00,,,0.00,0,Wunderground v.1.15,2013-05-29 06:33:00,
2013-05-29 01:34:00,66.7,63.0,29.64,SE,130,6.0,8.0,88,0.00,,,0.00,0,Wunderground v.1.15,2013-05-29 06:34:00,
2013-05-29 01:36:00,66.7,63.0,29.64,ESE,120,5.0,8.0,88,0.00,,,0.00,0,Wunderground v.1.15,2013-05-29 06:36:00,
2013-05-29 01:37:00,66.7,63.0,29.64,SE,132,8.0,8.0,88,0.00,,,0.00,0,Wunderground v.1.15,2013-05-29 06:37:00,
2013-05-29 01:39:00,66.7,63.0,29.64,SE,128,4.0,8.0,88,0.00,,,0.00,0,Wunderground v.1.15,2013-05-29 06:39:00,
2013-05-29 01:41:00,66.7,63.0,29.64,SE,143,7.0,7.0,88,0.00,,,0.00,0,Wunderground v.1.15,2013-05-29 06:41:00,
2013-05-29 01:43:00,66.7,63.0,29.64,SE,141,4.0,7.0,88,0.00,,,0.00,0,Wunderground v.1.15,2013-05-29 06:43:00,
2013-05-29 01:44:00,66.6,62.9,29.64,SE,145,4.0,7.0,88,0.00,,,0.00,0,Wunderground v.1.15,2013-05-29 06:44:00,
2013-05-29 01:45:00,66.5,62.8,29.64,SSE,150,5.0,7.0,88,0.00,,,0.00,0,Wunderground v.1.15,2013-05-29 06:45:00,
2013-05-29 01:46:00,66.5,63.2,29.64,SSE,152,6.0,7.0,89,0.00,,,0.00,0,Wunderground v.1.15,2013-05-29 06:46:00,
2013-05-29 01:48:00,66.4,63.1,29.65,South,173,5.0,7.0,89,0.00,,,0.00,0,Wunderground v.1.15,2013-05-29 06:48:00,
2013-05-29 01:49:00,66.4,63.1,29.65,South,169,7.0,7.0,89,0.00,,,0.00,0,Wunderground v.1.15,2013-05-29 06:49:00,
2013-05-29 01:52:00,66.3,63.0,29.65,South,180,3.0,6.0,89,0.00,,,0.00,0,Wunderground v.1.15,2013-05-29 06:52:00,
2013-05-29 01:54:00,66.1,63.1,29.65,South,176,3.0,6.0,90,0.00,,,0.00,0,Wunderground v.1.15,2013-05-29 06:54:00,
2013-05-29 01:55:00,66.0,63.0,29.65,South,176,3.0,6.0,90,0.00,,,0.00,0,Wunderground v.1.15,2013-05-29 06:55:00,
2013-05-29 01:58:00,65.9,63.2,29.65,South,171,5.0,6.0,91,0.00,,,0.00,0,Wunderground v.1.15,2013-05-29 06:58:00,
2013-05-29 01:59:00,65.8,63.1,29.65,South,179,5.0,6.0,91,0.00,,,0.00,0,Wunderground v.1.15,2013-05-29 06:59:00,
2013-05-29 02:01:00,65.8,63.1,29.65,SSE,161,5.0,5.0,91,0.00,,,0.00,0,Wunderground v.1.15,2013-05-29 07:01:00,
2013-05-29 02:03:00,65.8,63.1,29.65,South,183,7.0,7.0,91,0.00,,,0.00,0,Wunderground v.1.15,2013-05-29 07:03:00,
2013-05-29 02:06:00,65.9,63.2,29.64,SSE,161,3.0,8.0,91,0.00,,,0.00,0,Wunderground v.1.15,2013-05-29 07:06:00,
2013-05-29 02:07:00,65.9,63.2,29.64,SSE,166,6.0,8.0,91,0.00,,,0.00,0,Wunderground v.1.15,2013-05-29 07:07:00,
2013-05-29 02:08:00,65.9,63.2,29.64,SSE,161,5.0,8.0,91,0.00,,,0.00,0,Wunderground v.1.15,2013-05-29 07:08:00,
2013-05-29 02:09:00,65.9,63.2,29.64,SSE,166,4.0,8.0,91,0.00,,,0.00,0,Wunderground v.1.15,2013-05-29 07:09:00,
2013-05-29 02:13:00,66.0,63.3,29.65,South,175,7.0,10.0,91,0.00,,,0.00,0,Wunderground v.1.15,2013-05-29 07:13:00,
2013-05-29 02:14:00,66.1,63.4,29.65,South,171,5.0,10.0,91,0.00,,,0.00,0,Wunderground v.1.15,2013-05-29 07:14:00,
2013-05-29 02:15:00,66.1,63.4,29.65,South,181,4.0,10.0,91,0.00,,,0.00,0,Wunderground v.1.15,2013-05-29 07:15:00,
2013-05-29 02:18:00,66.0,63.3,29.65,SSE,161,6.0,10.0,91,0.00,,,0.00,0,Wunderground v.1.15,2013-05-29 07:18:00,
2013-05-29 02:20:00,66.0,63.3,29.65,SSE,159,5.0,6.0,91,0.00,,,0.00,0,Wunderground v.1.15,2013-05-29 07:20:00,
2013-05-29 02:22:00,66.0,63.3,29.65,SSE,159,8.0,8.0,91,0.00,,,0.00,0,Wunderground v.1.15,2013-05-29 07:22:00,
2013-05-29 02:24:00,66.0,63.3,29.65,South,171,7.0,8.0,91,0.00,,,0.00,0,Wunderground v.1.15,2013-05-29 07:24:00,
2013-05-29 02:25:00,66.0,63.3,29.65,South,173,9.0,9.0,91,0.00,,,0.00,0,Wunderground v.1.15,2013-05-29 07:25:00,
2013-05-29 02:26:00,65.9,63.2,29.65,South,172,8.0,9.0,91,0.00,,,0.00,0,Wunderground v.1.15,2013-05-29 07:26:00,
2013-05-29 02:27:00,66.0,63.3,29.65,South,174,8.0,9.0,91,0.00,,,0.00,0,Wunderground v.1.15,2013-05-29 07:27:00,
2013-05-29 02:30:00,66.0,63.3,29.66,SSE,167,8.0,8.0,91,0.00,,,0.00,0,Wunderground v.1.15,2013-05-29 07:30:00,
2013-05-29 02:31:00,66.0,63.3,29.66,South,173,5.0,9.0,91,0.00,,,0.00,0,Wunderground v.1.15,2013-05-29 07:31:00,
2013-05-29 02:35:00,65.9,63.2,29.66,South,183,6.0,10.0,91,0.00,,,0.00,0,Wunderground v.1.15,2013-05-29 07:35:00,
2013-05-29 02:36:00,65.9,63.2,29.66,SSW,200,7.0,10.0,91,0.00,,,0.00,0,Wunderground v.1.15,2013-05-29 07:36:00,
2013-05-29 02:37:00,65.9,63.2,29.66,South,188,13.0,13.0,91,0.00,,,0.00,0,Wunderground v.1.15,2013-05-29 07:37:00,
2013-05-29 02:40:00,65.8,63.1,29.66,South,190,9.0,9.0,91,0.00,,,0.00,0,Wunderground v.1.15,2013-05-29 07:40:00,
2013-05-29 02:41:00,65.8,63.1,29.66,South,184,6.0,9.0,91,0.00,,,0.00,0,Wunderground v.1.15,2013-05-29 07:41:00,
2013-05-29 02:42:00,65.8,63.1,29.66,South,172,8.0,9.0,91,0.00,,,0.00,0,Wunderground v.1.15,2013-05-29 07:42:00,
2013-05-29 02:43:00,65.7,63.0,29.66,South,182,8.0,10.0,91,0.00,,,0.00,0,Wunderground v.1.15,2013-05-29 07:43:00,
2013-05-29 02:46:00,65.7,63.0,29.66,South,186,11.0,11.0,91,0.00,,,0.00,0,Wunderground v.1.15,2013-05-29 07:46:00,
2013-05-29 02:48:00,65.6,62.6,29.66,South,183,9.0,11.0,90,0.00,,,0.00,0,Wunderground v.1.15,2013-05-29 07:48:00,
2013-05-29 02:50:00,65.6,62.6,29.66,South,188,12.0,14.0,90,0.00,,,0.00,0,Wunderground v.1.15,2013-05-29 07:50:00,
2013-05-29 02:51:00,65.6,62.6,29.66,South,184,12.0,14.0,90,0.00,,,0.00,0,Wunderground v.1.15,2013-05-29 07:51:00,
2013-05-29 02:52:00,65.6,62.6,29.66,South,173,7.0,14.0,90,0.00,,,0.00,0,Wunderground v.1.15,2013-05-29 07:52:00,
2013-05-29 02:54:00,65.6,62.3,29.66,SSW,192,8.0,14.0,89,0.00,,,0.00,0,Wunderground v.1.15,2013-05-29 07:54:00,
2013-05-29 02:55:00,65.6,62.3,29.66,SSW,202,8.0,14.0,89,0.00,,,0.00,0,Wunderground v.1.15,2013-05-29 07:55:00,
2013-05-29 02:57:00,65.5,62.2,29.66,South,178,7.0,14.0,89,0.00,,,0.00,0,Wunderground v.1.15,2013-05-29 07:57:00,
2013-05-29 02:59:00,65.4,62.1,29.66,SSW,194,7.0,14.0,89,0.00,,,0.00,0,Wunderground v.1.15,2013-05-29 07:59:00,
2013-05-29 03:00:00,65.3,62.0,29.66,SSW,192,11.0,12.0,89,0.00,,,0.00,0,Wunderground v.1.15,2013-05-29 08:00:00,
2013-05-29 03:01:00,65.3,62.0,29.66,South,175,9.0,12.0,89,0.00,,,0.00,0,Wunderground v.1.15,2013-05-29 08:01:00,
2013-05-29 03:02:00,65.2,61.9,29.66,SSE,165,8.0,12.0,89,0.00,,,0.00,0,Wunderground v.1.15,2013-05-29 08:02:00,
2013-05-29 03:03:00,65.2,61.9,29.66,South,185,6.0,12.0,89,0.00,,,0.00,0,Wunderground v.1.15,2013-05-29 08:03:00,
2013-05-29 03:05:00,65.1,61.8,29.66,South,173,4.0,12.0,89,0.00,,,0.00,0,Wunderground v.1.15,2013-05-29 08:05:00,
2013-05-29 03:07:00,65.0,61.4,29.65,South,190,6.0,12.0,88,0.00,,,0.00,0,Wunderground v.1.15,2013-05-29 08:07:00,
2013-05-29 03:10:00,65.0,61.4,29.66,SSE,162,7.0,7.0,88,0.00,,,0.00,0,Wunderground v.1.15,2013-05-29 08:10:00,
2013-05-29 03:13:00,64.9,61.3,29.65,South,179,6.0,7.0,88,0.00,,,0.00,0,Wunderground v.1.15,2013-05-29 08:13:00,
2013-05-29 03:15:00,64.8,61.2,29.66,South,178,6.0,7.0,88,0.00,,,0.00,0,Wunderground v.1.15,2013-05-29 08:15:00,
2013-05-29 03:18:00,64.7,61.4,29.66,South,173,5.0,9.0,89,0.00,,,0.00,0,Wunderground v.1.15,2013-05-29 08:18:00,
2013-05-29 03:19:00,64.7,61.4,29.66,South,183,5.0,9.0,89,0.00,,,0.00,0,Wunderground v.1.15,2013-05-29 08:19:00,
2013-05-29 03:20:00,64.7,61.4,29.66,South,175,5.0,6.0,89,0.00,,,0.00,0,Wunderground v.1.15,2013-05-29 08:20:00,
2013-05-29 03:21:00,64.6,61.3,29.66,South,169,5.0,6.0,89,0.00,,,0.00,0,Wunderground v.1.15,2013-05-29 08:21:00,
2013-05-29 03:24:00,64.5,61.2,29.66,South,179,6.0,7.0,89,0.00,,,0.00,0,Wunderground v.1.15,2013-05-29 08:24:00,
2013-05-29 03:25:00,64.5,61.2,29.66,South,174,6.0,7.0,89,0.00,,,0.00,0,Wunderground v.1.15,2013-05-29 08:25:00,
2013-05-29 03:26:00,64.5,61.2,29.66,South,175,7.0,7.0,89,0.00,,,0.00,0,Wunderground v.1.15,2013-05-29 08:26:00,
2013-05-29 03:28:00,64.5,61.2,29.66,South,190,7.0,9.0,89,0.00,,,0.00,0,Wunderground v.1.15,2013-05-29 08:28:00,
2013-05-29 03:30:00,64.5,60.9,29.66,SSW,198,7.0,7.0,88,0.00,,,0.00,0,Wunderground v.1.15,2013-05-29 08:30:00,
2013-05-29 03:31:00,64.5,60.9,29.67,SSW,198,9.0,9.0,88,0.00,,,0.00,0,Wunderground v.1.15,2013-05-29 08:31:00,
2013-05-29 03:34:00,64.5,60.9,29.67,South,186,9.0,10.0,88,0.00,,,0.00,0,Wunderground v.1.15,2013-05-29 08:34:00,
2013-05-29 03:35:00,64.4,60.8,29.67,SSW,192,7.0,10.0,88,0.00,,,0.00,0,Wunderground v.1.15,2013-05-29 08:35:00,
2013-05-29 03:37:00,64.4,60.8,29.67,SSW,195,6.0,10.0,88,0.00,,,0.00,0,Wunderground v.1.15,2013-05-29 08:37:00,
2013-05-29 03:38:00,64.3,60.7,29.67,South,187,5.0,10.0,88,0.00,,,0.00,0,Wunderground v.1.15,2013-05-29 08:38:00,
2013-05-29 03:40:00,64.3,60.7,29.67,SSW,198,6.0,6.0,88,0.00,,,0.00,0,Wunderground v.1.15,2013-05-29 08:40:00,
2013-05-29 03:42:00,64.2,60.6,29.67,South,189,7.0,7.0,88,0.00,,,0.00,0,Wunderground v.1.15,2013-05-29 08:42:00,
2013-05-29 03:43:00,64.2,60.6,29.67,SSW,194,3.0,7.0,88,0.00,,,0.00,0,Wunderground v.1.15,2013-05-29 08:43:00,
2013-05-29 03:45:00,64.1,60.5,29.67,SSW,196,5.0,7.0,88,0.00,,,0.00,0,Wunderground v.1.15,2013-05-29 08:45:00,
2013-05-29 03:47:00,64.0,60.7,29.67,SSW,197,4.0,7.0,89,0.00,,,0.00,0,Wunderground v.1.15,2013-05-29 08:47:00,
2013-05-29 03:48:00,64.0,60.7,29.67,SSW,197,3.0,7.0,89,0.00,,,0.00,0,Wunderground v.1.15,2013-05-29 08:48:00,
2013-05-29 03:51:00,63.9,60.6,29.67,SSW,198,2.0,4.0,89,0.00,,,0.00,0,Wunderground v.1.15,2013-05-29 08:51:00,
2013-05-29 03:52:00,63.8,60.5,29.67,SSW,198,3.0,4.0,89,0.00,,,0.00,0,Wunderground v.1.15,2013-05-29 08:52:00,
2013-05-29 03:53:00,63.7,60.4,29.67,SSW,198,4.0,4.0,89,0.00,,,0.00,0,Wunderground v.1.15,2013-05-29 08:53:00,
2013-05-29 03:56:00,63.6,60.3,29.67,SSW,198,0.0,4.0,89,0.00,,,0.00,0,Wunderground v.1.15,2013-05-29 08:56:00,
2013-05-29 03:57:00,63.5,60.2,29.67,SSW,197,2.0,4.0,89,0.00,,,0.00,0,Wunderground v.1.15,2013-05-29 08:57:00,
2013-05-29 03:58:00,63.5,60.5,29.67,SSW,197,1.0,4.0,90,0.00,,,0.00,0,Wunderground v.1.15,2013-05-29 08:58:00,
2013-05-29 03:59:00,63.4,60.4,29.67,South,177,2.0,4.0,90,0.00,,,0.00,0,Wunderground v.1.15,2013-05-29 08:59:00,
2013-05-29 04:02:00,63.4,60.4,29.67,South,169,2.0,4.0,90,0.00,,,0.00,0,Wunderground v.1.15,2013-05-29 09:02:00,
2013-05-29 04:03:00,63.4,60.4,29.67,SSE,167,2.0,4.0,90,0.00,,,0.00,0,Wunderground v.1.15,2013-05-29 09:03:00,
2013-05-29 04:04:00,63.4,60.4,29.67,SSE,166,3.0,4.0,90,0.00,,,0.00,0,Wunderground v.1.15,2013-05-29 09:04:00,
2013-05-29 04:05:00,63.4,60.4,29.67,SSE,164,2.0,4.0,90,0.00,,,0.00,0,Wunderground v.1.15,2013-05-29 09:05:00,
2013-05-29 04:08:00,63.4,60.4,29.67,SSE,163,2.0,4.0,90,0.00,,,0.00,0,Wunderground v.1.15,2013-05-29 09:08:00,
2013-05-29 04:09:00,63.5,60.5,29.68,SSE,163,2.0,4.0,90,0.00,,,0.00,0,Wunderground v.1.15,2013-05-29 09:09:00,
2013-05-29 04:10:00,63.5,60.2,29.68,SSE,163,2.0,3.0,89,0.00,,,0.00,0,Wunderground v.1.15,2013-05-29 09:10:00,
2013-05-29 04:12:00,63.6,60.3,29.68,SSE,163,0.0,3.0,89,0.00,,,0.00,0,Wunderground v.1.15,2013-05-29 09:12:00,
2013-05-29 04:13:00,63.6,60.3,29.68,SSE,163,3.0,3.0,89,0.00,,,0.00,0,Wunderground v.1.15,2013-05-29 09:13:00,
2013-05-29 04:15:00,63.5,60.2,29.68,SSE,163,2.0,3.0,89,0.00,,,0.00,0,Wunderground v.1.15,2013-05-29 09:15:00,
2013-05-29 04:18:00,63.5,60.2,29.68,SSE,163,2.0,3.0,89,0.00,,,0.00,0,Wunderground v.1.15,2013-05-29 09:18:00,
2013-05-29 04:19:00,63.5,60.2,29.68,SSE,163,2.0,3.0,89,0.00,,,0.00,0,Wunderground v.1.15,2013-05-29 09:19:00,
2013-05-29 04:20:00,63.5,60.2,29.68,SSE,163,3.0,3.0,89,0.00,,,0.00,0,Wunderground v.1.15,2013-05-29 09:20:00,
2013-05-29 04:21:00,63.5,60.2,29.68,SSE,163,2.0,3.0,89,0.00,,,0.00,0,Wunderground v.1.15,2013-05-29 09:21:00,
2013-05-29 04:23:00,63.5,60.2,29.68,SSE,161,2.0,4.0,89,0.00,,,0.00,0,Wunderground v.1.15,2013-05-29 09:23:00,
2013-05-29 04:24:00,63.4,60.1,29.67,SSE,161,4.0,4.0,89,0.00,,,0.00,0,Wunderground v.1.15,2013-05-29 09:24:00,
2013-05-29 04:25:00,63.4,60.1,29.67,SSE,159,4.0,5.0,89,0.00,,,0.00,0,Wunderground v.1.15,2013-05-29 09:25:00,
2013-05-29 04:28:00,63.3,60.0,29.67,SSE,157,4.0,5.0,89,0.00,,,0.00,0,Wunderground v.1.15,2013-05-29 09:28:00,
2013-05-29 04:30:00,63.2,59.9,29.67,SSE,156,3.0,3.0,89,0.00,,,0.00,0,Wunderground v.1.15,2013-05-29 09:30:00,
2013-05-29 04:31:00,63.2,59.9,29.67,SSE,157,4.0,4.0,89,0.00,,,0.00,0,Wunderground v.1.15,2013-05-29 09:31:00,
2013-05-29 04:32:00,63.2,59.9,29.67,SSE,155,4.0,4.0,89,0.00,,,0.00,0,Wunderground v.1.15,2013-05-29 09:32:00,
2013-05-29 04:33:00,63.3,60.0,29.67,SSE,158,4.0,4.0,89,0.00,,,0.00,0,Wunderground v.1.15,2013-05-29 09:33:00,
2013-05-29 04:36:00,63.4,60.1,29.67,SSE,159,4.0,6.0,89,0.00,,,0.00,0,Wunderground v.1.15,2013-05-29 09:36:00,
2013-05-29 04:39:00,63.6,60.0,29.67,SSE,157,5.0,6.0,88,0.00,,,0.00,0,Wunderground v.1.15,2013-05-29 09:39:00,
2013-05-29 04:40:00,63.7,60.1,29.68,SSE,162,2.0,4.0,88,0.00,,,0.00,0,Wunderground v.1.15,2013-05-29 09:40:00,
2013-05-29 04:41:00,63.8,60.2,29.68,SSE,165,3.0,4.0,88,0.00,,,0.00,0,Wunderground v.1.15,2013-05-29 09:41:00,
2013-05-29 04:43:00,63.8,60.2,29.68,SSE,161,6.0,6.0,88,0.00,,,0.00,0,Wunderground v.1.15,2013-05-29 09:43:00,
2013-05-29 04:44:00,63.8,60.2,29.68,SSE,159,2.0,6.0,88,0.00,,,0.00,0,Wunderground v.1.15,2013-05-29 09:44:00,
2013-05-29 04:45:00,63.8,60.2,29.68,SSE,151,4.0,6.0,88,0.00,,,0.00,0,Wunderground v.1.15,2013-05-29 09:45:00,
2013-05-29 04:47:00,63.8,60.2,29.68,SSE,160,3.0,6.0,88,0.00,,,0.00,0,Wunderground v.1.15,2013-05-29 09:47:00,
2013-05-29 04:48:00,63.8,60.2,29.68,SSE,161,7.0,7.0,88,0.00,,,0.00,0,Wunderground v.1.15,2013-05-29 09:48:00,
2013-05-29 04:50:00,63.9,60.3,29.68,SSE,157,3.0,5.0,88,0.00,,,0.00,0,Wunderground v.1.15,2013-05-29 09:50:00,
2013-05-29 04:51:00,63.9,60.3,29.68,SSE,153,4.0,5.0,88,0.00,,,0.00,0,Wunderground v.1.15,2013-05-29 09:51:00,
2013-05-29 04:52:00,63.8,60.2,29.68,SSE,151,4.0,5.0,88,0.00,,,0.00,0,Wunderground v.1.15,2013-05-29 09:52:00,
2013-05-29 04:53:00,63.8,60.2,29.68,SSE,151,4.0,5.0,88,0.00,,,0.00,0,Wunderground v.1.15,2013-05-29 09:53:00,
2013-05-29 04:55:00,63.7,60.1,29.69,SSE,151,3.0,5.0,88,0.00,,,0.00,0,Wunderground v.1.15,2013-05-29 09:55:00,
2013-05-29 04:56:00,63.6,60.0,29.69,SSE,151,3.0,5.0,88,0.00,,,0.00,0,Wunderground v.1.15,2013-05-29 09:56:00,
2013-05-29 04:58:00,63.5,59.9,29.69,SE,143,6.0,6.0,88,0.00,,,0.00,0,Wunderground v.1.15,2013-05-29 09:58:00,
2013-05-29 04:59:00,63.5,59.9,29.69,SE,143,4.0,6.0,88,0.00,,,0.00,0,Wunderground v.1.15,2013-05-29 09:59:00,
2013-05-29 05:00:00,63.5,59.9,29.69,SE,143,4.0,4.0,88,0.00,,,0.00,0,Wunderground v.1.15,2013-05-29 10:00:00,
2013-05-29 05:01:00,63.5,59.9,29.69,SE,142,5.0,5.0,88,0.00,,,0.00,0,Wunderground v.1.15,2013-05-29 10:01:00,
2013-05-29 05:04:00,63.6,60.0,29.69,SE,142,5.0,6.0,88,0.00,,,0.00,0,Wunderground v.1.15,2013-05-29 10:04:00,
2013-05-29 05:06:00,63.8,60.2,29.69,SE,138,4.0,6.0,88,0.00,,,0.00,0,Wunderground v.1.15,2013-05-29 10:06:00,
2013-05-29 05:07:00,63.9,60.0,29.69,SE,136,6.0,6.0,87,0.00,,,0.00,0,Wunderground v.1.15,2013-05-29 10:07:00,
2013-05-29 05:08:00,63.9,60.0,29.69,SE,140,6.0,8.0,87,0.00,,,0.00,0,Wunderground v.1.15,2013-05-29 10:08:00,
2013-05-29 05:09:00,64.0,60.1,29.69,SE,138,5.0,8.0,87,0.00,,,0.00,0,Wunderground v.1.15,2013-05-29 10:09:00,
2013-05-29 05:11:00,64.1,60.2,29.69,SE,142,3.0,5.0,87,0.00,,,0.00,0,Wunderground v.1.15,2013-05-29 10:11:00,
2013-05-29 05:13:00,64.2,59.9,29.69,SE,131,5.0,6.0,86,0.00,,,0.00,0,Wunderground v.1.15,2013-05-29 10:13:00,
2013-05-29 05:14:00,64.2,59.9,29.69,SE,133,6.0,6.0,86,0.00,,,0.00,0,Wunderground v.1.15,2013-05-29 10:14:00,
2013-05-29 05:17:00,64.3,60.0,29.69,SE,132,4.0,6.0,86,0.00,,,0.00,0,Wunderground v.1.15,2013-05-29 10:17:00,
2013-05-29 05:19:00,64.3,60.0,29.69,SE,130,4.0,7.0,86,0.00,,,0.00,0,Wunderground v.1.15,2013-05-29 10:19:00,
2013-05-29 05:20:00,64.3,60.0,29.69,SE,126,5.0,7.0,86,0.00,,,0.00,0,Wunderground v.1.15,2013-05-29 10:20:00,
2013-05-29 05:22:00,64.3,60.0,29.69,ESE,123,3.0,7.0,86,0.00,,,0.00,0,Wunderground v.1.15,2013-05-29 10:22:00,
2013-05-29 05:23:00,64.3,60.0,29.69,SE,124,5.0,7.0,86,0.00,,,0.00,0,Wunderground v.1.15,2013-05-29 10:23:00,
2013-05-29 05:25:00,64.3,60.0,29.69,ESE,120,7.0,8.0,86,0.00,,,0.00,0,Wunderground v.1.15,2013-05-29 10:25:00,
2013-05-29 05:26:00,64.2,59.9,29.69,SE,138,8.0,10.0,86,0.00,,,0.00,0,Wunderground v.1.15,2013-05-29 10:26:00,
2013-05-29 05:27:00,64.3,60.0,29.69,SE,140,5.0,10.0,86,0.00,,,0.00,0,Wunderground v.1.15,2013-05-29 10:27:00,
2013-05-29 05:29:00,64.3,60.0,29.69,SE,146,3.0,10.0,86,0.00,,,0.00,0,Wunderground v.1.15,2013-05-29 10:29:00,
2013-05-29 05:31:00,64.3,60.0,29.69,SE,138,6.0,6.0,86,0.00,,,0.00,0,Wunderground v.1.15,2013-05-29 10:31:00,
2013-05-29 05:32:00,64.3,60.0,29.69,SE,133,6.0,6.0,86,0.00,,,0.00,0,Wunderground v.1.15,2013-05-29 10:32:00,
2013-05-29 05:33:00,64.3,60.0,29.69,SE,146,8.0,8.0,86,0.00,,,0.00,0,Wunderground v.1.15,2013-05-29 10:33:00,
2013-05-29 05:36:00,64.3,60.0,29.69,SE,142,5.0,8.0,86,0.00,,,0.00,0,Wunderground v.1.15,2013-05-29 10:36:00,
2013-05-29 05:38:00,64.3,60.0,29.69,SSE,148,7.0,8.0,86,0.00,,,0.00,0,Wunderground v.1.15,2013-05-29 10:38:00,
2013-05-29 05:39:00,64.4,60.1,29.69,SSE,148,4.0,8.0,86,0.00,,,0.00,0,Wunderground v.1.15,2013-05-29 10:39:00,
2013-05-29 05:41:00,64.4,60.1,29.69,SE,141,5.0,6.0,86,0.00,,,0.00,0,Wunderground v.1.15,2013-05-29 10:41:00,
2013-05-29 05:43:00,64.3,60.0,29.69,SE,135,5.0,7.0,86,0.00,,,0.00,0,Wunderground v.1.15,2013-05-29 10:43:00,
2013-05-29 05:44:00,64.3,60.0,29.69,SE,140,5.0,7.0,86,0.00,,,0.00,0,Wunderground v.1.15,2013-05-29 10:44:00,
2013-05-29 05:45:00,64.3,60.0,29.69,SSE,151,8.0,8.0,86,0.00,,,0.00,0,Wunderground v.1.15,2013-05-29 10:45:00,
2013-05-29 05:46:00,64.3,60.3,29.69,SE,144,8.0,8.0,87,0.00,,,0.00,0,Wunderground v.1.15,2013-05-29 10:46:00,
2013-05-29 05:50:00,64.2,60.2,29.69,SE,136,6.0,6.0,87,0.00,,,0.00,5,Wunderground v.1.15,2013-05-29 10:50:00,
2013-05-29 05:51:00,64.2,60.2,29.69,SE,142,6.0,6.0,87,0.00,,,0.00,5,Wunderground v.1.15,2013-05-29 10:51:00,
2013-05-29 05:52:00,64.2,60.2,29.69,SE,145,7.0,7.0,87,0.00,,,0.00,7,Wunderground v.1.15,2013-05-29 10:52:00,
2013-05-29 05:56:00,64.2,60.2,29.69,SE,138,7.0,9.0,87,0.00,,,0.00,11,Wunderground v.1.15,2013-05-29 10:56:00,
2013-05-29 05:58:00,64.3,60.3,29.69,SE,146,6.0,9.0,87,0.00,,,0.00,12,Wunderground v.1.15,2013-05-29 10:58:00,
2013-05-29 05:59:00,64.3,60.3,29.69,SE,146,6.0,9.0,87,0.00,,,0.00,12,Wunderground v.1.15,2013-05-29 10:59:00,
2013-05-29 06:01:00,64.3,60.3,29.69,SE,144,6.0,9.0,87,0.00,,,0.00,14,Wunderground v.1.15,2013-05-29 11:01:00,
2013-05-29 06:02:00,64.3,60.3,29.69,SSE,153,6.0,9.0,87,0.00,,,0.00,14,Wunderground v.1.15,2013-05-29 11:02:00,
2013-05-29 06:03:00,64.3,60.3,29.69,SSE,152,5.0,9.0,87,0.00,,,0.00,14,Wunderground v.1.15,2013-05-29 11:03:00,
2013-05-29 06:04:00,64.3,60.3,29.69,SE,136,8.0,9.0,87,0.00,,,0.00,14,Wunderground v.1.15,2013-05-29 11:04:00,
2013-05-29 06:07:00,64.3,60.3,29.69,SSE,150,6.0,9.0,87,0.00,,,0.00,18,Wunderground v.1.15,2013-05-29 11:07:00,
2013-05-29 06:08:00,64.3,60.3,29.69,SE,137,7.0,9.0,87,0.00,,,0.00,18,Wunderground v.1.15,2013-05-29 11:08:00,
2013-05-29 06:09:00,64.3,60.3,29.69,SE,141,4.0,9.0,87,0.00,,,0.00,18,Wunderground v.1.15,2013-05-29 11:09:00,
2013-05-29 06:11:00,64.3,60.3,29.69,SSE,153,5.0,7.0,87,0.00,,,0.00,19,Wunderground v.1.15,2013-05-29 11:11:00,
2013-05-29 06:13:00,64.3,60.3,29.69,SE,142,7.0,7.0,87,0.00,,,0.00,23,Wunderground v.1.15,2013-05-29 11:13:00,
2013-05-29 06:14:00,64.3,60.3,29.69,SSE,148,5.0,7.0,87,0.00,,,0.00,25,Wunderground v.1.15,2013-05-29 11:14:00,
2013-05-29 06:18:00,64.4,60.4,29.69,SE,144,5.0,7.0,87,0.00,,,0.00,25,Wunderground v.1.15,2013-05-29 11:18:00,
2013-05-29 06:19:00,64.4,60.4,29.69,SSE,150,5.0,7.0,87,0.00,,,0.00,25,Wunderground v.1.15,2013-05-29 11:19:00,
2013-05-29 06:20:00,64.4,60.4,29.69,SSE,147,7.0,7.0,87,0.00,,,0.00,26,Wunderground v.1.15,2013-05-29 11:20:00,
2013-05-29 06:25:00,64.5,60.5,29.69,SSE,165,6.0,10.0,87,0.00,,,0.00,32,Wunderground v.1.15,2013-05-29 11:25:00,
2013-05-29 06:26:00,64.5,60.5,29.69,SSE,151,6.0,10.0,87,0.00,,,0.00,32,Wunderground v.1.15,2013-05-29 11:26:00,
2013-05-29 06:27:00,64.5,60.5,29.69,SE,141,7.0,10.0,87,0.00,,,0.00,32,Wunderground v.1.15,2013-05-29 11:27:00,
2013-05-29 06:30:00,64.6,60.6,29.69,SSE,150,5.0,9.0,87,0.00,,,0.00,35,Wunderground v.1.15,2013-05-29 11:30:00,
2013-05-29 06:31:00,64.6,60.6,29.69,SSE,154,6.0,9.0,87,0.00,,,0.00,35,Wunderground v.1.15,2013-05-29 11:31:00,
2013-05-29 06:33:00,64.6,60.6,29.69,SSE,154,7.0,9.0,87,0.00,,,0.00,37,Wunderground v.1.15,2013-05-29 11:33:00,
2013-05-29 06:36:00,64.6,60.6,29.69,SSE,153,7.0,9.0,87,0.00,,,0.00,37,Wunderground v.1.15,2013-05-29 11:36:00,
2013-05-29 06:38:00,64.6,60.6,29.69,SSE,162,7.0,9.0,87,0.00,,,0.00,37,Wunderground v.1.15,2013-05-29 11:38:00,
2013-05-29 06:39:00,64.5,60.5,29.69,SSE,155,6.0,9.0,87,0.00,,,0.00,40,Wunderground v.1.15,2013-05-29 11:39:00,
2013-05-29 06:42:00,64.5,60.5,29.69,SSE,163,5.0,8.0,87,0.00,,,0.00,47,Wunderground v.1.15,2013-05-29 11:42:00,
2013-05-29 06:43:00,64.5,60.5,29.69,SE,142,6.0,8.0,87,0.00,,,0.00,49,Wunderground v.1.15,2013-05-29 11:43:00,
2013-05-29 06:44:00,64.5,60.9,29.69,SSE,155,7.0,8.0,88,0.00,,,0.00,54,Wunderground v.1.15,2013-05-29 11:44:00,
2013-05-29 06:49:00,64.6,60.6,29.69,SE,144,10.0,12.0,87,0.00,,,0.00,74,Wunderground v.1.15,2013-05-29 11:49:00,
2013-05-29 06:50:00,64.6,60.6,29.68,SSE,148,11.0,11.0,87,0.00,,,0.00,76,Wunderground v.1.15,2013-05-29 11:50:00,
2013-05-29 06:51:00,64.6,60.6,29.68,SE,138,6.0,11.0,87,0.00,,,0.00,81,Wunderground v.1.15,2013-05-29 11:51:00,
2013-05-29 06:54:00,64.6,61.0,29.68,SSE,151,7.0,11.0,88,0.00,,,0.00,83,Wunderground v.1.15,2013-05-29 11:54:00,
2013-05-29 06:55:00,64.6,61.0,29.68,SE,131,8.0,11.0,88,0.00,,,0.00,86,Wunderground v.1.15,2013-05-29 11:55:00,
2013-05-29 06:56:00,64.7,61.1,29.68,SSE,153,7.0,11.0,88,0.00,,,0.00,91,Wunderground v.1.15,2013-05-29 11:56:00,
2013-05-29 07:00:00,64.8,61.2,29.68,SE,142,11.0,11.0,88,0.00,,,0.00,114,Wunderground v.1.15,2013-05-29 12:00:00,
2013-05-29 07:02:00,64.9,60.9,29.68,SE,141,10.0,11.0,87,0.00,,,0.00,167,Wunderground v.1.15,2013-05-29 12:02:00,
2013-05-29 07:03:00,64.9,60.9,29.68,SSE,163,8.0,11.0,87,0.00,,,0.00,167,Wunderground v.1.15,2013-05-29 12:03:00,
2013-05-29 07:05:00,65.0,61.0,29.68,SSE,167,12.0,13.0,87,0.00,,,0.00,156,Wunderground v.1.15,2013-05-29 12:05:00,
2013-05-29 07:06:00,65.1,61.1,29.68,SSE,159,11.0,13.0,87,0.00,,,0.00,160,Wunderground v.1.15,2013-05-29 12:06:00,
2013-05-29 07:07:00,65.1,61.1,29.68,SSE,152,9.0,13.0,87,0.00,,,0.00,146,Wunderground v.1.15,2013-05-29 12:07:00,
2013-05-29 07:08:00,65.1,61.1,29.68,SSE,161,9.0,15.0,87,0.00,,,0.00,118,Wunderground v.1.15,2013-05-29 12:08:00,
2013-05-29 07:10:00,65.2,61.2,29.68,SSE,156,7.0,12.0,87,0.00,,,0.00,188,Wunderground v.1.15,2013-05-29 12:10:00,
2013-05-29 07:13:00,65.4,61.4,29.68,SSE,157,10.0,12.0,87,0.00,,,0.00,223,Wunderground v.1.15,2013-05-29 12:13:00,
2013-05-29 07:14:00,65.5,61.5,29.67,SSE,159,11.0,13.0,87,0.00,,,0.00,229,Wunderground v.1.15,2013-05-29 12:14:00,
2013-05-29 07:16:00,65.6,61.6,29.67,SSE,148,11.0,13.0,87,0.00,,,0.00,232,Wunderground v.1.15,2013-05-29 12:16:00,
2013-05-29 07:18:00,65.8,61.8,29.67,SSE,154,12.0,13.0,87,0.00,,,0.00,236,Wunderground v.1.15,2013-05-29 12:18:00,
2013-05-29 07:20:00,65.8,61.8,29.67,SE,138,10.0,11.0,87,0.00,,,0.00,236,Wunderground v.1.15,2013-05-29 12:20:00,
2013-05-29 07:22:00,65.9,61.9,29.67,SSE,163,11.0,13.0,87,0.00,,,0.00,236,Wunderground v.1.15,2013-05-29 12:22:00,
2013-05-29 07:23:00,65.9,61.9,29.67,SSE,159,9.0,13.0,87,0.00,,,0.00,211,Wunderground v.1.15,2013-05-29 12:23:00,
2013-05-29 07:27:00,66.0,62.0,29.68,SSE,163,9.0,13.0,87,0.00,,,0.00,146,Wunderground v.1.15,2013-05-29 12:27:00,
2013-05-29 07:28:00,66.0,62.0,29.67,SE,126,13.0,13.0,87,0.00,,,0.00,209,Wunderground v.1.15,2013-05-29 12:28:00,
2013-05-29 07:29:00,66.0,62.0,29.67,SSE,154,8.0,13.0,87,0.00,,,0.00,144,Wunderground v.1.15,2013-05-29 12:29:00,
2013-05-29 07:30:00,66.0,62.0,29.67,SSE,165,10.0,10.0,87,0.00,,,0.00,185,Wunderground v.1.15,2013-05-29 12:30:00,
2013-05-29 07:33:00,66.0,62.0,29.67,SSE,168,7.0,12.0,87,0.00,,,0.00,153,Wunderground v.1.15,2013-05-29 12:33:00,
2013-05-29 07:34:00,66.1,62.1,29.67,SSE,165,11.0,14.0,87,0.00,,,0.00,192,Wunderground v.1.15,2013-05-29 12:34:00,
2013-05-29 07:35:00,66.1,62.1,29.67,SSE,152,9.0,14.0,87,0.00,,,0.00,181,Wunderground v.1.15,2013-05-29 12:35:00,
2013-05-29 07:39:00,66.1,62.1,29.67,SSE,159,9.0,14.0,87,0.00,,,0.00,190,Wunderground v.1.15,2013-05-29 12:39:00,
2013-05-29 07:40:00,66.2,62.2,29.67,SSE,166,9.0,10.0,87,0.00,,,0.00,188,Wunderground v.1.15,2013-05-29 12:40:00,
2013-05-29 07:42:00,66.3,62.3,29.67,South,169,8.0,12.0,87,0.00,,,0.00,176,Wunderground v.1.15,2013-05-29 12:42:00,
2013-05-29 07:43:00,66.3,62.3,29.67,SSE,153,7.0,12.0,87,0.00,,,0.00,211,Wunderground v.1.15,2013-05-29 12:43:00,
2013-05-29 07:45:00,66.4,62.4,29.67,SE,145,8.0,12.0,87,0.00,,,0.00,244,Wunderground v.1.15,2013-05-29 12:45:00,
2013-05-29 07:46:00,66.5,62.5,29.67,SSE,165,12.0,12.0,87,0.00,,,0.00,213,Wunderground v.1.15,2013-05-29 12:46:00,
2013-05-29 07:47:00,66.5,62.8,29.67,South,172,8.0,12.0,88,0.00,,,0.00,213,Wunderground v.1.15,2013-05-29 12:47:00,
2013-05-29 07:48:00,66.5,62.5,29.67,SSE,156,8.0,14.0,87,0.00,,,0.00,213,Wunderground v.1.15,2013-05-29 12:48:00,
2013-05-29 07:51:00,66.8,63.1,29.67,SSE,163,10.0,11.0,88,0.00,,,0.00,190,Wunderground v.1.15,2013-05-29 12:51:00,
2013-05-29 07:52:00,66.8,62.8,29.67,SSE,153,8.0,11.0,87,0.00,,,0.00,179,Wunderground v.1.15,2013-05-29 12:52:00,
2013-05-29 07:53:00,66.8,62.8,29.67,SSE,151,9.0,11.0,87,0.00,,,0.00,179,Wunderground v.1.15,2013-05-29 12:53:00,
2013-05-29 07:54:00,67.1,63.1,29.67,SE,142,10.0,11.0,87,0.00,,,0.00,221,Wunderground v.1.15,2013-05-29 12:54:00,
2013-05-29 07:57:00,67.4,63.4,29.67,South,170,14.0,14.0,87,0.00,,,0.00,202,Wunderground v.1.15,2013-05-29 12:57:00,
2013-05-29 07:58:00,67.6,63.3,29.67,South,169,9.0,14.0,86,0.00,,,0.00,360,Wunderground v.1.15,2013-05-29 12:58:00,
2013-05-29 07:59:00,67.7,63.4,29.67,SSE,159,10.0,14.0,86,0.00,,,0.00,364,Wunderground v.1.15,2013-05-29 12:59:00,
2013-05-29 08:00:00,68.0,64.0,29.67,SSE,167,7.0,10.0,87,0.00,,,0.00,366,Wunderground v.1.15,2013-05-29 13:00:00,
2013-05-29 08:02:00,68.2,63.5,29.67,SSE,167,13.0,14.0,85,0.00,,,0.00,199,Wunderground v.1.15,2013-05-29 13:02:00,
2013-05-29 08:03:00,68.1,63.4,29.67,South,181,10.0,14.0,85,0.00,,,0.00,218,Wunderground v.1.15,2013-05-29 13:03:00,
2013-05-29 08:04:00,68.1,63.4,29.67,SSE,161,10.0,14.0,85,0.00,,,0.00,218,Wunderground v.1.15,2013-05-29 13:04:00,
2013-05-29 08:05:00,68.0,63.7,29.67,SSE,164,8.0,14.0,86,0.00,,,0.00,197,Wunderground v.1.15,2013-05-29 13:05:00,
2013-05-29 08:08:00,68.0,64.0,29.67,SSE,153,13.0,14.0,87,0.00,,,0.00,360,Wunderground v.1.15,2013-05-29 13:08:00,
2013-05-29 08:09:00,68.0,64.0,29.67,SSE,164,12.0,14.0,87,0.00,,,0.00,360,Wunderground v.1.15,2013-05-29 13:09:00,
2013-05-29 08:10:00,68.1,64.1,29.67,SSE,163,11.0,14.0,87,0.00,,,0.00,424,Wunderground v.1.15,2013-05-29 13:10:00,
2013-05-29 08:11:00,68.3,64.3,29.67,South,169,6.0,17.0,87,0.00,,,0.00,424,Wunderground v.1.15,2013-05-29 13:11:00,
2013-05-29 08:12:00,68.3,63.9,29.67,South,169,13.0,18.0,86,0.00,,,0.00,424,Wunderground v.1.15,2013-05-29 13:12:00,
2013-05-29 08:15:00,68.3,63.9,29.67,South,169,9.0,18.0,86,0.00,,,0.00,322,Wunderground v.1.15,2013-05-29 13:15:00,
2013-05-29 08:16:00,68.5,64.5,29.67,SSE,161,8.0,18.0,87,0.00,,,0.00,485,Wunderground v.1.15,2013-05-29 13:16:00,
2013-05-29 08:20:00,69.0,64.3,29.67,South,171,11.0,16.0,85,0.00,,,0.00,366,Wunderground v.1.15,2013-05-29 13:20:00,
2013-05-29 08:21:00,69.0,64.3,29.67,South,178,12.0,16.0,85,0.00,,,0.00,366,Wunderground v.1.15,2013-05-29 13:21:00,
2013-05-29 08:24:00,68.9,64.2,29.67,South,169,8.0,16.0,85,0.00,,,0.00,153,Wunderground v.1.15,2013-05-29 13:24:00,
2013-05-29 08:25:00,68.7,64.0,29.67,SSE,162,8.0,16.0,85,0.00,,,0.00,132,Wunderground v.1.15,2013-05-29 13:25:00,
2013-05-29 08:26:00,68.6,63.9,29.67,South,190,11.0,16.0,85,0.00,,,0.00,132,Wunderground v.1.15,2013-05-29 13:26:00,
2013-05-29 08:27:00,68.6,63.9,29.67,South,169,8.0,16.0,85,0.00,,,0.00,132,Wunderground v.1.15,2013-05-29 13:27:00,
2013-05-29 08:28:00,68.5,64.1,29.67,South,173,12.0,16.0,86,0.00,,,0.00,118,Wunderground v.1.15,2013-05-29 13:28:00,
2013-05-29 08:30:00,68.4,63.7,29.67,SSE,165,12.0,17.0,85,0.00,,,0.00,111,Wunderground v.1.15,2013-05-29 13:30:00,
2013-05-29 08:32:00,68.4,64.0,29.67,SSE,155,9.0,17.0,86,0.00,,,0.00,113,Wunderground v.1.15,2013-05-29 13:32:00,
2013-05-29 08:33:00,68.3,63.9,29.67,SSE,158,8.0,17.0,86,0.00,,,0.00,113,Wunderground v.1.15,2013-05-29 13:33:00,
2013-05-29 08:36:00,68.3,63.9,29.67,South,175,9.0,17.0,86,0.00,,,0.00,135,Wunderground v.1.15,2013-05-29 13:36:00,
2013-05-29 08:38:00,68.3,63.9,29.67,South,180,9.0,17.0,86,0.00,,,0.00,155,Wunderground v.1.15,2013-05-29 13:38:00,
2013-05-29 08:39:00,68.3,63.9,29.67,South,171,8.0,17.0,86,0.00,,,0.00,167,Wunderground v.1.15,2013-05-29 13:39:00,
2013-05-29 08:40:00,68.3,64.3,29.67,South,177,12.0,12.0,87,0.00,,,0.00,195,Wunderground v.1.15,2013-05-29 13:40:00,
2013-05-29 08:41:00,68.4,64.4,29.67,South,169,11.0,12.0,87,0.00,,,0.00,223,Wunderground v.1.15,2013-05-29 13:41:00,
2013-05-29 08:44:00,68.7,64.3,29.67,SSE,158,7.0,12.0,86,0.00,,,0.00,209,Wunderground v.1.15,2013-05-29 13:44:00,
2013-05-29 08:45:00,68.7,64.3,29.67,SSE,153,11.0,12.0,86,0.00,,,0.00,209,Wunderground v.1.15,2013-05-29 13:45:00,
2013-05-29 08:46:00,68.8,64.4,29.67,SSE,165,10.0,12.0,86,0.00,,,0.00,199,Wunderground v.1.15,2013-05-29 13:46:00,
2013-05-29 08:50:00,68.8,64.1,29.66,South,175,10.0,10.0,85,0.00,,,0.00,248,Wunderground v.1.15,2013-05-29 13:50:00,
2013-05-29 08:52:00,68.8,64.1,29.66,SSE,163,13.0,15.0,85,0.00,,,0.00,193,Wunderground v.1.15,2013-05-29 13:52:00,
2013-05-29 08:56:00,68.8,64.1,29.66,South,169,10.0,15.0,85,0.00,,,0.00,193,Wunderground v.1.15,2013-05-29 13:56:00,
2013-05-29 08:57:00,68.8,64.1,29.66,South,171,14.0,15.0,85,0.00,,,0.00,188,Wunderground v.1.15,2013-05-29 13:57:00,
2013-05-29 08:58:00,68.8,64.4,29.66,SSE,153,9.0,18.0,86,0.00,,,0.00,188,Wunderground v.1.15,2013-05-29 13:58:00,
2013-05-29 09:01:00,68.8,64.1,29.66,SSE,157,11.0,13.0,85,0.00,,,0.00,179,Wunderground v.1.15,2013-05-29 14:01:00,
2013-05-29 09:03:00,68.9,64.2,29.66,SSE,165,13.0,13.0,85,0.00,,,0.00,178,Wunderground v.1.15,2013-05-29 14:03:00,
2013-05-29 09:07:00,69.0,64.6,29.66,SSE,165,9.0,15.0,86,0.00,,,0.00,199,Wunderground v.1.15,2013-05-29 14:07:00,
2013-05-29 09:08:00,69.1,64.7,29.66,SSE,148,11.0,15.0,86,0.00,,,0.00,218,Wunderground v.1.15,2013-05-29 14:08:00,
2013-05-29 09:09:00,69.2,64.8,29.66,SSE,162,14.0,15.0,86,0.00,,,0.00,230,Wunderground v.1.15,2013-05-29 14:09:00,
2013-05-29 09:12:00,69.5,65.1,29.66,South,171,12.0,15.0,86,0.00,,,0.00,278,Wunderground v.1.15,2013-05-29 14:12:00,
2013-05-29 09:13:00,69.6,65.2,29.66,South,171,10.0,16.0,86,0.00,,,0.00,278,Wunderground v.1.15,2013-05-29 14:13:00,
2013-05-29 09:14:00,69.9,65.5,29.67,South,181,9.0,16.0,86,0.00,,,0.00,311,Wunderground v.1.15,2013-05-29 14:14:00,
2013-05-29 09:16:00,70.4,66.3,29.67,SSE,165,11.0,16.0,87,0.00,,,0.00,378,Wunderground v.1.15,2013-05-29 14:16:00,
2013-05-29 09:18:00,70.8,66.4,29.67,South,190,18.0,18.0,86,0.00,,,0.00,294,Wunderground v.1.15,2013-05-29 14:18:00,
2013-05-29 09:19:00,70.8,65.7,29.67,SSE,164,14.0,18.0,84,0.00,,,0.00,316,Wunderground v.1.15,2013-05-29 14:19:00,
2013-05-29 09:20:00,70.8,65.7,29.67,South,184,11.0,14.0,84,0.00,,,0.00,243,Wunderground v.1.15,2013-05-29 14:20:00,
2013-05-29 09:21:00,70.8,65.7,29.67,SSE,168,16.0,16.0,84,0.00,,,0.00,218,Wunderground v.1.15,2013-05-29 14:21:00,
2013-05-29 09:22:00,70.7,65.6,29.67,South,174,13.0,16.0,84,0.00,,,0.00,199,Wunderground v.1.15,2013-05-29 14:22:00,
2013-05-29 09:25:00,70.6,65.5,29.67,SSE,154,13.0,17.0,84,0.00,,,0.00,123,Wunderground v.1.15,2013-05-29 14:25:00,
2013-05-29 09:26:00,70.6,65.5,29.67,South,186,15.0,17.0,84,0.00,,,0.00,102,Wunderground v.1.15,2013-05-29 14:26:00,
2013-05-29 09:29:00,70.2,65.1,29.66,SSE,163,14.0,19.0,84,0.00,,,0.00,51,Wunderground v.1.15,2013-05-29 14:29:00,
2013-05-29 09:30:00,69.9,65.2,29.66,SSE,166,8.0,12.0,85,0.00,,,0.00,40,Wunderground v.1.15,2013-05-29 14:30:00,
2013-05-29 09:31:00,69.8,65.1,29.66,SSE,166,9.0,12.0,85,0.00,,,0.00,40,Wunderground v.1.15,2013-05-29 14:31:00,
2013-05-29 09:32:00,69.7,65.0,29.66,South,180,5.0,12.0,85,0.00,,,0.00,33,Wunderground v.1.15,2013-05-29 14:32:00,
2013-05-29 09:35:00,69.3,64.9,29.66,SSE,166,14.0,15.0,86,0.00,,,0.00,28,Wunderground v.1.15,2013-05-29 14:35:00,
2013-05-29 09:36:00,69.2,64.8,29.66,South,177,8.0,15.0,86,0.00,,,0.00,26,Wunderground v.1.15,2013-05-29 14:36:00,
2013-05-29 09:37:00,69.0,64.6,29.66,South,174,9.0,15.0,86,0.00,,,0.01,26,Wunderground v.1.15,2013-05-29 14:37:00,
2013-05-29 09:38:00,69.0,64.6,29.66,South,173,10.0,15.0,86,0.00,,,0.01,26,Wunderground v.1.15,2013-05-29 14:38:00,
2013-05-29 09:40:00,68.7,64.7,29.65,SSE,161,8.0,10.0,87,0.00,,,0.01,25,Wunderground v.1.15,2013-05-29 14:40:00,
2013-05-29 09:41:00,68.6,64.6,29.65,SSE,165,7.0,10.0,87,0.00,,,0.01,25,Wunderground v.1.15,2013-05-29 14:41:00,
2013-05-29 09:42:00,68.5,64.5,29.66,SSE,166,8.0,10.0,87,0.00,,,0.01,25,Wunderground v.1.15,2013-05-29 14:42:00,
2013-05-29 09:43:00,68.4,64.7,29.66,South,173,6.0,10.0,88,0.00,,,0.01,23,Wunderground v.1.15,2013-05-29 14:43:00,
2013-05-29 09:46:00,68.0,64.6,29.65,SSE,160,6.0,10.0,89,0.00,,,0.01,21,Wunderground v.1.15,2013-05-29 14:46:00,
2013-05-29 09:48:00,67.9,64.5,29.65,SSE,162,8.0,10.0,89,0.00,,,0.01,21,Wunderground v.1.15,2013-05-29 14:48:00,
2013-05-29 09:49:00,67.8,64.4,29.65,SSE,161,6.0,10.0,89,0.05,,,0.02,21,Wunderground v.1.15,2013-05-29 14:49:00,
2013-05-29 09:52:00,67.7,64.7,29.64,SSE,163,8.0,8.0,90,0.05,,,0.02,23,Wunderground v.1.15,2013-05-29 14:52:00,
2013-05-29 09:53:00,67.7,64.7,29.64,South,174,7.0,8.0,90,0.05,,,0.02,23,Wunderground v.1.15,2013-05-29 14:53:00,
2013-05-29 09:56:00,67.6,64.6,29.64,South,169,8.0,11.0,90,0.05,,,0.02,26,Wunderground v.1.15,2013-05-29 14:56:00,
2013-05-29 09:58:00,67.6,64.6,29.64,SSE,149,8.0,11.0,90,0.05,,,0.02,26,Wunderground v.1.15,2013-05-29 14:58:00,
2013-05-29 10:00:00,67.6,64.6,29.64,SSE,153,6.0,8.0,90,0.05,,,0.02,28,Wunderground v.1.15,2013-05-29 15:00:00,
2013-05-29 10:01:00,67.6,64.6,29.64,SSE,148,8.0,11.0,90,0.05,,,0.02,28,Wunderground v.1.15,2013-05-29 15:01:00,
2013-05-29 10:02:00,67.6,64.6,29.64,SE,146,8.0,11.0,90,0.04,,,0.02,30,Wunderground v.1.15,2013-05-29 15:02:00,
2013-05-29 10:03:00,67.5,64.8,29.64,SSE,148,11.0,11.0,91,0.04,,,0.02,30,Wunderground v.1.15,2013-05-29 15:03:00,
2013-05-29 10:05:00,67.5,64.8,29.64,SSE,167,6.0,11.0,91,0.04,,,0.02,30,Wunderground v.1.15,2013-05-29 15:05:00,
2013-05-29 10:06:00,67.5,64.8,29.65,SSE,153,8.0,11.0,91,0.00,,,0.02,30,Wunderground v.1.15,2013-05-29 15:06:00,
2013-05-29 10:07:00,67.5,64.8,29.65,ESE,120,12.0,12.0,91,0.00,,,0.02,32,Wunderground v.1.15,2013-05-29 15:07:00,
2013-05-29 10:08:00,67.6,64.9,29.64,SSE,148,8.0,12.0,91,0.00,,,0.02,33,Wunderground v.1.15,2013-05-29 15:08:00,
2013-05-29 10:10:00,67.6,64.9,29.64,SSE,164,6.0,9.0,91,0.00,,,0.02,35,Wunderground v.1.15,2013-05-29 15:10:00,
2013-05-29 10:11:00,67.6,64.9,29.64,SSE,157,9.0,11.0,91,0.00,,,0.02,40,Wunderground v.1.15,2013-05-29 15:11:00,
2013-05-29 10:12:00,67.6,64.9,29.64,SSE,166,7.0,11.0,91,0.00,,,0.02,42,Wunderground v.1.15,2013-05-29 15:12:00,
2013-05-29 10:14:00,67.6,64.9,29.64,South,182,8.0,12.0,91,0.00,,,0.02,49,Wunderground v.1.15,2013-05-29 15:14:00,
2013-05-29 10:16:00,67.7,65.0,29.64,SSE,164,9.0,12.0,91,0.00,,,0.02,53,Wunderground v.1.15,2013-05-29 15:16:00,
2013-05-29 10:17:00,67.7,65.0,29.64,SSE,159,6.0,12.0,91,0.00,,,0.02,60,Wunderground v.1.15,2013-05-29 15:17:00,
2013-05-29 10:19:00,67.7,65.0,29.64,SSE,152,7.0,12.0,91,0.00,,,0.02,63,Wunderground v.1.15,2013-05-29 15:19:00,
2013-05-29 10:22:00,67.7,65.0,29.64,SE,134,7.0,11.0,91,0.00,,,0.02,70,Wunderground v.1.15,2013-05-29 15:22:00,
2013-05-29 10:23:00,67.7,65.0,29.64,SSE,156,8.0,11.0,91,0.00,,,0.02,72,Wunderground v.1.15,2013-05-29 15:23:00,
2013-05-29 10:24:00,67.8,65.1,29.64,SSE,162,5.0,11.0,91,0.00,,,0.02,72,Wunderground v.1.15,2013-05-29 15:24:00,
2013-05-29 10:25:00,67.8,65.1,29.64,SSE,157,8.0,11.0,91,0.00,,,0.02,72,Wunderground v.1.15,2013-05-29 15:25:00,
2013-05-29 10:28:00,67.9,65.2,29.64,SSE,164,7.0,11.0,91,0.00,,,0.02,113,Wunderground v.1.15,2013-05-29 15:28:00,
2013-05-29 10:30:00,67.9,65.2,29.64,SSE,167,8.0,8.0,91,0.00,,,0.02,123,Wunderground v.1.15,2013-05-29 15:30:00,
2013-05-29 10:31:00,68.0,65.3,29.64,SSE,166,7.0,13.0,91,0.00,,,0.02,139,Wunderground v.1.15,2013-05-29 15:31:00,
2013-05-29 10:34:00,68.2,65.5,29.64,SSE,165,9.0,13.0,91,0.00,,,0.02,151,Wunderground v.1.15,2013-05-29 15:34:00,
2013-05-29 10:35:00,68.2,65.5,29.64,SSE,159,6.0,13.0,91,0.00,,,0.02,151,Wunderground v.1.15,2013-05-29 15:35:00,
2013-05-29 10:36:00,68.3,65.6,29.64,SSE,158,6.0,13.0,91,0.00,,,0.02,155,Wunderground v.1.15,2013-05-29 15:36:00,
2013-05-29 10:39:00,68.5,65.8,29.64,SSE,147,8.0,13.0,91,0.00,,,0.02,176,Wunderground v.1.15,2013-05-29 15:39:00,
2013-05-29 10:40:00,68.6,65.9,29.64,SSE,149,8.0,8.0,91,0.00,,,0.02,190,Wunderground v.1.15,2013-05-29 15:40:00,
2013-05-29 10:41:00,68.6,65.9,29.64,SSE,149,6.0,8.0,91,0.00,,,0.02,190,Wunderground v.1.15,2013-05-29 15:41:00,
2013-05-29 10:42:00,68.7,66.0,29.63,SSE,149,6.0,8.0,91,0.00,,,0.02,204,Wunderground v.1.15,2013-05-29 15:42:00,
2013-05-29 10:45:00,68.9,66.2,29.63,SSE,151,5.0,8.0,91,0.00,,,0.02,258,Wunderground v.1.15,2013-05-29 15:45:00,
2013-05-29 10:46:00,69.0,66.3,29.63,SSE,153,7.0,8.0,91,0.00,,,0.02,269,Wunderground v.1.15,2013-05-29 15:46:00,
2013-05-29 10:47:00,69.1,66.4,29.63,SSE,165,5.0,8.0,91,0.00,,,0.02,281,Wunderground v.1.15,2013-05-29 15:47:00,
2013-05-29 10:48:00,69.2,66.5,29.63,SSE,161,8.0,8.0,91,0.00,,,0.02,294,Wunderground v.1.15,2013-05-29 15:48:00,
2013-05-29 10:50:00,69.4,66.7,29.63,SSE,167,8.0,8.0,91,0.00,,,0.02,308,Wunderground v.1.15,2013-05-29 15:50:00,
2013-05-29 10:51:00,69.5,66.8,29.63,South,173,7.0,9.0,91,0.00,,,0.02,338,Wunderground v.1.15,2013-05-29 15:51:00,
2013-05-29 10:53:00,69.8,67.1,29.63,SSE,161,9.0,9.0,91,0.00,,,0.02,436,Wunderground v.1.15,2013-05-29 15:53:00,
2013-05-29 10:55:00,70.0,67.3,29.64,SSE,163,10.0,10.0,91,0.00,,,0.02,515,Wunderground v.1.15,2013-05-29 15:55:00,
2013-05-29 10:56:00,70.3,67.2,29.64,SSE,163,12.0,12.0,90,0.00,,,0.02,536,Wunderground v.1.15,2013-05-29 15:56:00,
2013-05-29 10:57:00,70.3,67.2,29.64,South,176,8.0,12.0,90,0.00,,,0.02,536,Wunderground v.1.15,2013-05-29 15:57:00,
2013-05-29 10:59:00,70.7,67.6,29.64,SSE,164,6.0,13.0,90,0.00,,,0.02,636,Wunderground v.1.15,2013-05-29 15:59:00,
2013-05-29 11:01:00,71.0,67.9,29.64,South,178,8.0,9.0,90,0.00,,,0.02,636,Wunderground v.1.15,2013-05-29 16:01:00,
2013-05-29 11:02:00,71.3,68.2,29.64,South,178,9.0,9.0,90,0.00,,,0.02,636,Wunderground v.1.15,2013-05-29 16:02:00,
2013-05-29 11:04:00,71.6,68.2,29.64,South,172,11.0,11.0,89,0.00,,,0.02,459,Wunderground v.1.15,2013-05-29 16:04:00,
2013-05-29 11:05:00,71.6,68.2,29.64,South,179,10.0,11.0,89,0.00,,,0.02,459,Wunderground v.1.15,2013-05-29 16:05:00,
2013-05-29 11:07:00,71.7,68.3,29.64,South,188,11.0,11.0,89,0.00,,,0.02,330,Wunderground v.1.15,2013-05-29 16:07:00,
2013-05-29 11:08:00,71.7,68.3,29.64,South,180,9.0,11.0,89,0.00,,,0.02,323,Wunderground v.1.15,2013-05-29 16:08:00,
2013-05-29 11:09:00,71.7,68.3,29.64,South,171,6.0,11.0,89,0.00,,,0.02,306,Wunderground v.1.15,2013-05-29 16:09:00,
2013-05-29 11:10:00,71.8,68.4,29.64,South,173,13.0,13.0,89,0.00,,,0.02,290,Wunderground v.1.15,2013-05-29 16:10:00,
2013-05-29 11:11:00,71.7,68.0,29.64,South,173,11.0,13.0,88,0.00,,,0.02,278,Wunderground v.1.15,2013-05-29 16:11:00,
2013-05-29 11:13:00,71.7,68.0,29.64,South,190,12.0,13.0,88,0.00,,,0.02,276,Wunderground v.1.15,2013-05-29 16:13:00,
2013-05-29 11:15:00,71.7,68.0,29.64,South,169,9.0,13.0,88,0.00,,,0.02,265,Wunderground v.1.15,2013-05-29 16:15:00,
2013-05-29 11:16:00,71.7,68.3,29.64,SSW,192,8.0,13.0,89,0.00,,,0.02,288,Wunderground v.1.15,2013-05-29 16:16:00,
2013-05-29 11:17:00,71.7,68.3,29.64,SSE,162,11.0,13.0,89,0.00,,,0.02,288,Wunderground v.1.15,2013-05-29 16:17:00,
2013-05-29 11:18:00,71.8,68.4,29.64,South,184,9.0,13.0,89,0.00,,,0.02,281,Wunderground v.1.15,2013-05-29 16:18:00,
2013-05-29 11:21:00,71.9,68.5,29.64,South,173,11.0,11.0,89,0.00,,,0.02,327,Wunderground v.1.15,2013-05-29 16:21:00,
2013-05-29 11:22:00,72.1,68.7,29.64,SSE,163,14.0,14.0,89,0.00,,,0.02,425,Wunderground v.1.15,2013-05-29 16:22:00,
2013-05-29 11:23:00,72.3,68.5,29.64,South,178,8.0,14.0,88,0.00,,,0.02,380,Wunderground v.1.15,2013-05-29 16:23:00,
2013-05-29 11:26:00,72.5,68.7,29.64,South,175,7.0,14.0,88,0.00,,,0.02,341,Wunderground v.1.15,2013-05-29 16:26:00,
2013-05-29 11:27:00,72.7,68.9,29.64,SSE,161,9.0,14.0,88,0.00,,,0.02,285,Wunderground v.1.15,2013-05-29 16:27:00,
2013-05-29 11:28:00,72.9,69.5,29.64,SSW,192,8.0,14.0,89,0.00,,,0.02,234,Wunderground v.1.15,2013-05-29 16:28:00,
2013-05-29 11:32:00,73.1,69.0,29.65,SSE,165,12.0,15.0,87,0.00,,,0.02,172,Wunderground v.1.15,2013-05-29 16:32:00,
2013-05-29 11:33:00,73.1,69.3,29.65,SSW,198,12.0,15.0,88,0.00,,,0.02,165,Wunderground v.1.15,2013-05-29 16:33:00,
2013-05-29 11:34:00,73.2,69.1,29.65,SSW,206,10.0,15.0,87,0.00,,,0.02,151,Wunderground v.1.15,2013-05-29 16:34:00,
2013-05-29 11:38:00,73.3,68.9,29.66,South,190,9.0,15.0,86,0.00,,,0.02,137,Wunderground v.1.15,2013-05-29 16:38:00,
2013-05-29 11:39:00,73.4,69.3,29.66,South,191,9.0,15.0,87,0.00,,,0.02,148,Wunderground v.1.15,2013-05-29 16:39:00,
2013-05-29 11:42:00,73.5,69.4,29.66,SSW,212,10.0,13.0,87,0.00,,,0.02,144,Wunderground v.1.15,2013-05-29 16:42:00,
2013-05-29 11:44:00,73.6,69.2,29.66,SSW,200,10.0,14.0,86,0.00,,,0.02,107,Wunderground v.1.15,2013-05-29 16:44:00,
2013-05-29 11:45:00,73.6,69.2,29.66,SSW,207,8.0,14.0,86,0.00,,,0.02,90,Wunderground v.1.15,2013-05-29 16:45:00,
2013-05-29 11:48:00,73.5,68.7,29.66,SW,216,14.0,14.0,85,0.00,,,0.02,69,Wunderground v.1.15,2013-05-29 16:48:00,
2013-05-29 11:50:00,73.5,68.7,29.66,South,186,12.0,12.0,85,0.00,,,0.02,69,Wunderground v.1.15,2013-05-29 16:50:00,
2013-05-29 11:52:00,73.4,68.6,29.66,South,184,11.0,12.0,85,0.00,,,0.02,77,Wunderground v.1.15,2013-05-29 16:52:00,
2013-05-29 11:54:00,73.5,69.1,29.67,SW,223,7.0,13.0,86,0.00,,,0.02,121,Wunderground v.1.15,2013-05-29 16:54:00,
2013-05-29 11:57:00,73.5,69.1,29.67,SW,227,7.0,13.0,86,0.00,,,0.02,155,Wunderground v.1.15,2013-05-29 16:57:00,
2013-05-29 11:58:00,73.6,69.2,29.67,WSW,252,14.0,14.0,86,0.00,,,0.02,162,Wunderground v.1.15,2013-05-29 16:58:00,
2013-05-29 12:00:00,73.0,68.2,29.67,West,280,5.0,10.0,85,0.00,,,0.02,172,Wunderground v.1.15,2013-05-29 17:00:00,
2013-05-29 12:02:00,72.4,67.6,29.67,WNW,290,5.0,10.0,85,0.00,,,0.02,223,Wunderground v.1.15,2013-05-29 17:02:00,
2013-05-29 12:03:00,72.1,67.7,29.66,WNW,302,4.0,10.0,86,0.00,,,0.02,236,Wunderground v.1.15,2013-05-29 17:03:00,
2013-05-29 12:05:00,71.7,67.6,29.66,WNW,296,2.0,10.0,87,0.00,,,0.02,236,Wunderground v.1.15,2013-05-29 17:05:00,
2013-05-29 12:06:00,71.5,68.1,29.66,NW,323,0.0,10.0,89,0.00,,,0.02,236,Wunderground v.1.15,2013-05-29 17:06:00,
2013-05-29 12:09:00,71.5,68.1,29.65,WNW,290,1.0,10.0,89,0.00,,,0.02,297,Wunderground v.1.15,2013-05-29 17:09:00,
2013-05-29 12:11:00,71.9,68.5,29.65,SW,227,2.0,3.0,89,0.00,,,0.02,251,Wunderground v.1.15,2013-05-29 17:11:00,
2013-05-29 12:14:00,72.1,68.7,29.65,SW,227,0.0,3.0,89,0.00,,,0.02,220,Wunderground v.1.15,2013-05-29 17:14:00,
2013-05-29 12:15:00,72.2,68.8,29.65,SW,227,0.0,3.0,89,0.00,,,0.02,258,Wunderground v.1.15,2013-05-29 17:15:00,
2013-05-29 12:16:00,72.4,68.6,29.64,WNW,294,4.0,4.0,88,0.00,,,0.02,299,Wunderground v.1.15,2013-05-29 17:16:00,
2013-05-29 12:18:00,72.7,68.9,29.64,West,260,0.0,4.0,88,0.00,,,0.02,362,Wunderground v.1.15,2013-05-29 17:18:00,
2013-05-29 12:20:00,73.2,69.4,29.65,West,260,0.0,1.0,88,0.00,,,0.02,322,Wunderground v.1.15,2013-05-29 17:20:00,
2013-05-29 12:21:00,73.2,69.4,29.65,West,260,0.0,1.0,88,0.00,,,0.02,322,Wunderground v.1.15,2013-05-29 17:21:00,
2013-05-29 12:23:00,73.4,69.3,29.64,WSW,257,0.0,4.0,87,0.00,,,0.02,376,Wunderground v.1.15,2013-05-29 17:23:00,
2013-05-29 12:24:00,73.6,69.5,29.64,WSW,257,0.0,4.0,87,0.00,,,0.02,357,Wunderground v.1.15,2013-05-29 17:24:00,
2013-05-29 12:26:00,73.8,69.3,29.64,WSW,257,0.0,4.0,86,0.00,,,0.02,385,Wunderground v.1.15,2013-05-29 17:26:00,
2013-05-29 12:28:00,74.1,69.6,29.64,WSW,257,0.0,4.0,86,0.00,,,0.02,413,Wunderground v.1.15,2013-05-29 17:28:00,
2013-05-29 12:30:00,74.5,69.7,29.64,WSW,257,0.0,0.0,85,0.00,,,0.02,410,Wunderground v.1.15,2013-05-29 17:30:00,
2013-05-29 12:31:00,74.7,69.5,29.64,WSW,257,0.0,0.0,84,0.00,,,0.02,438,Wunderground v.1.15,2013-05-29 17:31:00,
2013-05-29 12:32:00,74.8,70.3,29.64,WSW,257,0.0,0.0,86,0.00,,,0.02,438,Wunderground v.1.15,2013-05-29 17:32:00,
2013-05-29 12:33:00,74.9,70.1,29.64,WSW,257,0.0,0.0,85,0.00,,,0.02,339,Wunderground v.1.15,2013-05-29 17:33:00,
2013-05-29 12:35:00,75.2,70.4,29.64,SSW,198,5.0,6.0,85,0.00,,,0.02,348,Wunderground v.1.15,2013-05-29 17:35:00,
2013-05-29 12:37:00,76.0,71.2,29.64,South,173,6.0,8.0,85,0.00,,,0.02,703,Wunderground v.1.15,2013-05-29 17:37:00,
2013-05-29 12:39:00,76.5,71.7,29.65,South,182,8.0,8.0,85,0.00,,,0.02,698,Wunderground v.1.15,2013-05-29 17:39:00,
2013-05-29 12:40:00,76.9,71.7,29.65,South,171,7.0,7.0,84,0.00,,,0.02,717,Wunderground v.1.15,2013-05-29 17:40:00,
2013-05-29 12:41:00,77.0,71.4,29.65,SSW,198,7.0,8.0,83,0.00,,,0.02,661,Wunderground v.1.15,2013-05-29 17:41:00,
2013-05-29 12:44:00,77.5,71.2,29.65,South,179,10.0,13.0,81,0.00,,,0.02,752,Wunderground v.1.15,2013-05-29 17:44:00,
2013-05-29 12:45:00,77.5,71.2,29.65,South,175,6.0,13.0,81,0.00,,,0.02,752,Wunderground v.1.15,2013-05-29 17:45:00,
2013-05-29 12:46:00,77.6,71.7,29.65,South,184,6.0,13.0,82,0.00,,,0.02,752,Wunderground v.1.15,2013-05-29 17:46:00,
2013-05-29 12:48:00,77.7,71.4,29.65,South,171,8.0,16.0,81,0.00,,,0.02,390,Wunderground v.1.15,2013-05-29 17:48:00,
2013-05-29 12:50:00,77.7,71.0,29.65,South,188,10.0,10.0,80,0.00,,,0.02,390,Wunderground v.1.15,2013-05-29 17:50:00,
2013-05-29 12:51:00,77.7,71.4,29.65,South,180,11.0,11.0,81,0.00,,,0.02,390,Wunderground v.1.15,2013-05-29 17:51:00,
2013-05-29 12:52:00,77.7,71.4,29.65,SSW,196,7.0,11.0,81,0.00,,,0.02,390,Wunderground v.1.15,2013-05-29 17:52:00,
2013-05-29 12:53:00,77.6,71.3,29.65,SSW,194,8.0,11.0,81,0.00,,,0.02,390,Wunderground v.1.15,2013-05-29 17:53:00,
2013-05-29 12:55:00,77.6,71.3,29.65,South,176,7.0,11.0,81,0.00,,,0.02,364,Wunderground v.1.15,2013-05-29 17:55:00,
2013-05-29 12:57:00,77.8,71.5,29.65,South,183,8.0,11.0,81,0.00,,,0.02,928,Wunderground v.1.15,2013-05-29 17:57:00,
2013-05-29 13:00:00,78.2,72.3,29.64,SSW,196,10.0,10.0,82,0.00,,,0.02,928,Wunderground v.1.15,2013-05-29 18:00:00,
2013-05-29 13:01:00,78.4,72.1,29.65,SSW,197,7.0,11.0,81,0.00,,,0.02,928,Wunderground v.1.15,2013-05-29 18:01:00,
2013-05-29 13:02:00,78.7,72.4,29.64,South,182,7.0,13.0,81,0.00,,,0.02,1056,Wunderground v.1.15,2013-05-29 18:02:00,
2013-05-29 13:03:00,78.8,72.5,29.64,South,190,5.0,13.0,81,0.00,,,0.02,1056,Wunderground v.1.15,2013-05-29 18:03:00,
2013-05-29 13:06:00,78.9,71.5,29.64,South,190,7.0,13.0,78,0.00,,,0.02,417,Wunderground v.1.15,2013-05-29 18:06:00,
2013-05-29 13:07:00,78.9,72.2,29.64,South,184,8.0,13.0,80,0.00,,,0.02,417,Wunderground v.1.15,2013-05-29 18:07:00,
2013-05-29 13:08:00,78.9,72.2,29.64,SSE,165,10.0,13.0,80,0.00,,,0.02,417,Wunderground v.1.15,2013-05-29 18:08:00,
2013-05-29 13:10:00,79.0,72.3,29.64,South,189,11.0,11.0,80,0.00,,,0.02,742,Wunderground v.1.15,2013-05-29 18:10:00,
2013-05-29 13:11:00,79.1,72.4,29.64,SSW,195,9.0,11.0,80,0.00,,,0.02,642,Wunderground v.1.15,2013-05-29 18:11:00,
2013-05-29 13:12:00,79.2,72.5,29.64,South,182,11.0,11.0,80,0.00,,,0.02,621,Wunderground v.1.15,2013-05-29 18:12:00,
2013-05-29 13:13:00,79.1,71.6,29.63,South,170,12.0,12.0,78,0.00,,,0.02,582,Wunderground v.1.15,2013-05-29 18:13:00,
2013-05-29 13:14:00,79.1,71.3,29.63,South,183,12.0,12.0,77,0.00,,,0.02,582,Wunderground v.1.15,2013-05-29 18:14:00,
2013-05-29 13:18:00,78.7,70.9,29.63,South,173,9.0,12.0,77,0.00,,,0.02,408,Wunderground v.1.15,2013-05-29 18:18:00,
2013-05-29 13:19:00,78.6,71.2,29.64,South,184,7.0,13.0,78,0.00,,,0.02,353,Wunderground v.1.15,2013-05-29 18:19:00,
2013-05-29 13:21:00,78.5,71.4,29.64,South,188,10.0,11.0,79,0.00,,,0.02,343,Wunderground v.1.15,2013-05-29 18:21:00,
2013-05-29 13:24:00,78.3,70.9,29.64,South,183,12.0,12.0,78,0.00,,,0.02,355,Wunderground v.1.15,2013-05-29 18:24:00,
2013-05-29 13:26:00,78.2,70.8,29.64,SSE,153,4.0,12.0,78,0.00,,,0.02,401,Wunderground v.1.15,2013-05-29 18:26:00,
2013-05-29 13:27:00,78.2,70.8,29.64,South,186,11.0,12.0,78,0.00,,,0.02,663,Wunderground v.1.15,2013-05-29 18:27:00,
2013-05-29 13:28:00,78.3,70.9,29.64,South,191,8.0,12.0,78,0.00,,,0.02,668,Wunderground v.1.15,2013-05-29 18:28:00,
2013-05-29 13:29:00,78.5,71.8,29.64,South,186,11.0,14.0,80,0.00,,,0.02,642,Wunderground v.1.15,2013-05-29 18:29:00,
2013-05-29 13:31:00,78.7,71.6,29.64,South,190,10.0,10.0,79,0.00,,,0.02,585,Wunderground v.1.15,2013-05-29 18:31:00,
2013-05-29 13:32:00,78.7,71.6,29.64,SSW,194,11.0,11.0,79,0.00,,,0.02,633,Wunderground v.1.15,2013-05-29 18:32:00,
2013-05-29 13:34:00,78.8,71.0,29.64,SSW,199,12.0,12.0,77,0.00,,,0.02,777,Wunderground v.1.15,2013-05-29 18:34:00,
2013-05-29 13:37:00,79.4,72.3,29.64,SSW,213,7.0,12.0,79,0.00,,,0.02,835,Wunderground v.1.15,2013-05-29 18:37:00,
2013-05-29 13:39:00,79.6,72.1,29.64,South,188,12.0,13.0,78,0.00,,,0.02,610,Wunderground v.1.15,2013-05-29 18:39:00,
2013-05-29 13:40:00,79.6,72.5,29.64,South,175,9.0,11.0,79,0.00,,,0.02,610,Wunderground v.1.15,2013-05-29 18:40:00,
2013-05-29 13:42:00,79.6,73.3,29.63,SSW,196,8.0,11.0,81,0.00,,,0.02,499,Wunderground v.1.15,2013-05-29 18:42:00,
2013-05-29 13:44:00,79.5,72.4,29.63,SSW,205,7.0,11.0,79,0.00,,,0.02,499,Wunderground v.1.15,2013-05-29 18:44:00,
2013-05-29 13:45:00,79.1,71.3,29.63,South,190,12.0,12.0,77,0.00,,,0.02,499,Wunderground v.1.15,2013-05-29 18:45:00,
2013-05-29 13:46:00,79.1,71.3,29.63,South,188,10.0,12.0,77,0.00,,,0.02,271,Wunderground v.1.15,2013-05-29 18:46:00,
2013-05-29 13:48:00,78.7,71.6,29.63,SSW,192,9.0,12.0,79,0.00,,,0.02,287,Wunderground v.1.15,2013-05-29 18:48:00,
2013-05-29 13:49:00,78.5,71.1,29.63,SW,215,12.0,13.0,78,0.00,,,0.02,274,Wunderground v.1.15,2013-05-29 18:49:00,
2013-05-29 13:51:00,78.2,71.5,29.63,WSW,238,10.0,10.0,80,0.00,,,0.02,211,Wunderground v.1.15,2013-05-29 18:51:00,
2013-05-29 13:53:00,78.0,71.0,29.63,SSW,207,10.0,13.0,79,0.00,,,0.02,206,Wunderground v.1.15,2013-05-29 18:53:00,
2013-05-29 13:54:00,77.9,70.5,29.63,SW,218,8.0,13.0,78,0.00,,,0.02,206,Wunderground v.1.15,2013-05-29 18:54:00,
2013-05-29 13:55:00,77.8,71.1,29.63,SW,219,7.0,13.0,80,0.00,,,0.02,200,Wunderground v.1.15,2013-05-29 18:55:00,
2013-05-29 13:57:00,77.6,70.2,29.63,SW,220,8.0,13.0,78,0.00,,,0.02,181,Wunderground v.1.15,2013-05-29 18:57:00,
2013-05-29 13:58:00,77.4,70.4,29.63,SW,216,8.0,13.0,79,0.00,,,0.02,171,Wunderground v.1.15,2013-05-29 18:58:00,
2013-05-29 13:59:00,77.4,70.7,29.63,WSW,240,9.0,13.0,80,0.00,,,0.02,171,Wunderground v.1.15,2013-05-29 18:59:00,
2013-05-29 14:02:00,77.2,70.2,29.63,SW,221,8.0,11.0,79,0.00,,,0.02,158,Wunderground v.1.15,2013-05-29 19:02:00,
2013-05-29 14:03:00,77.1,70.5,29.63,WSW,239,9.0,11.0,80,0.00,,,0.02,146,Wunderground v.1.15,2013-05-29 19:03:00,
2013-05-29 14:04:00,77.1,70.5,29.63,SW,227,7.0,11.0,80,0.00,,,0.02,135,Wunderground v.1.15,2013-05-29 19:04:00,
2013-05-29 14:05:00,76.9,70.3,29.64,SW,220,9.0,12.0,80,0.00,,,0.02,114,Wunderground v.1.15,2013-05-29 19:05:00,
2013-05-29 14:09:00,76.6,70.0,29.64,SW,232,11.0,12.0,80,0.00,,,0.02,76,Wunderground v.1.15,2013-05-29 19:09:00,
2013-05-29 14:10:00,76.6,70.3,29.64,SW,228,7.0,9.0,81,0.00,,,0.02,35,Wunderground v.1.15,2013-05-29 19:10:00,
2013-05-29 14:11:00,76.5,70.2,29.64,WSW,240,7.0,9.0,81,0.00,,,0.02,28,Wunderground v.1.15,2013-05-29 19:11:00,
2013-05-29 14:12:00,76.4,70.1,29.64,SW,233,7.0,9.0,81,0.00,,,0.02,26,Wunderground v.1.15,2013-05-29 19:12:00,
2013-05-29 14:15:00,76.2,70.3,29.62,West,264,7.0,9.0,82,0.00,,,0.02,18,Wunderground v.1.15,2013-05-29 19:15:00,
2013-05-29 14:16:00,76.2,70.3,29.62,West,265,6.0,9.0,82,0.00,,,0.02,12,Wunderground v.1.15,2013-05-29 19:16:00,
2013-05-29 14:17:00,76.0,70.1,29.62,WSW,255,6.0,9.0,82,0.00,,,0.03,9,Wunderground v.1.15,2013-05-29 19:17:00,
2013-05-29 14:18:00,76.0,70.1,29.62,WSW,255,5.0,9.0,82,0.00,,,0.03,9,Wunderground v.1.15,2013-05-29 19:18:00,
2013-05-29 14:21:00,75.2,70.0,29.63,SW,227,4.0,7.0,84,0.48,,,0.08,5,Wunderground v.1.15,2013-05-29 19:21:00,
2013-05-29 14:22:00,75.2,70.0,29.63,SSW,205,5.0,7.0,84,0.48,,,0.08,5,Wunderground v.1.15,2013-05-29 19:22:00,
2013-05-29 14:23:00,74.8,70.0,29.63,SW,226,7.0,7.0,85,0.47,,,0.09,5,Wunderground v.1.15,2013-05-29 19:23:00,
2013-05-29 14:27:00,73.7,68.6,29.65,SSW,195,10.0,11.0,84,0.26,,,0.10,5,Wunderground v.1.15,2013-05-29 19:27:00,
2013-05-29 14:29:00,73.2,68.1,29.65,SSW,194,9.0,11.0,84,0.37,,,0.12,0,Wunderground v.1.15,2013-05-29 19:29:00,
2013-05-29 14:30:00,72.5,67.7,29.65,SSW,196,16.0,16.0,85,1.47,,,0.15,5,Wunderground v.1.15,2013-05-29 19:30:00,
2013-05-29 14:34:00,69.5,64.8,29.63,South,178,9.0,16.0,85,0.88,,,0.23,5,Wunderground v.1.15,2013-05-29 19:34:00,
2013-05-29 14:36:00,67.7,63.7,29.61,SSE,161,6.0,16.0,87,0.54,,,0.26,7,Wunderground v.1.15,2013-05-29 19:36:00,
2013-05-29 14:37:00,67.6,63.9,29.61,South,171,8.0,16.0,88,0.63,,,0.26,7,Wunderground v.1.15,2013-05-29 19:37:00,
2013-05-29 14:39:00,66.6,63.6,29.61,SSE,161,7.0,16.0,90,0.21,,,0.27,7,Wunderground v.1.15,2013-05-29 19:39:00,
2013-05-29 14:40:00,66.3,63.3,29.61,SSE,152,6.0,9.0,90,0.17,,,0.27,7,Wunderground v.1.15,2013-05-29 19:40:00,
2013-05-29 14:43:00,65.7,63.0,29.62,South,169,7.0,9.0,91,0.10,,,0.28,7,Wunderground v.1.15,2013-05-29 19:43:00,
2013-05-29 14:44:00,65.5,63.1,29.62,SSE,162,5.0,9.0,92,0.44,,,0.28,9,Wunderground v.1.15,2013-05-29 19:44:00,
2013-05-29 14:46:00,65.4,63.0,29.62,SSE,165,7.0,9.0,92,0.28,,,0.29,9,Wunderground v.1.15,2013-05-29 19:46:00,
2013-05-29 14:49:00,65.2,63.1,29.62,SE,144,7.0,10.0,93,0.13,,,0.29,9,Wunderground v.1.15,2013-05-29 19:49:00,
2013-05-29 14:52:00,65.1,63.0,29.63,SE,144,10.0,13.0,93,0.09,,,0.30,12,Wunderground v.1.15,2013-05-29 19:52:00,
2013-05-29 14:54:00,65.1,63.0,29.63,South,170,9.0,13.0,93,0.35,,,0.31,14,Wunderground v.1.15,2013-05-29 19:54:00,
2013-05-29 14:56:00,65.0,62.9,29.63,SSE,165,7.0,13.0,93,0.21,,,0.31,16,Wunderground v.1.15,2013-05-29 19:56:00,
2013-05-29 14:58:00,65.0,62.9,29.62,South,181,6.0,13.0,93,0.11,,,0.31,18,Wunderground v.1.15,2013-05-29 19:58:00,
2013-05-29 15:00:00,65.1,63.0,29.62,SSW,194,7.0,8.0,93,0.09,,,0.31,21,Wunderground v.1.15,2013-05-29 20:00:00,
2013-05-29 15:02:00,65.2,63.1,29.62,South,186,6.0,8.0,93,0.07,,,0.31,26,Wunderground v.1.15,2013-05-29 20:02:00,
2013-05-29 15:05:00,65.3,63.2,29.63,South,176,7.0,8.0,93,0.05,,,0.31,33,Wunderground v.1.15,2013-05-29 20:05:00,
2013-05-29 15:07:00,65.5,63.4,29.63,South,177,3.0,9.0,93,0.04,,,0.31,44,Wunderground v.1.15,2013-05-29 20:07:00,
2013-05-29 15:08:00,65.5,63.4,29.63,SSW,202,5.0,9.0,93,0.04,,,0.31,47,Wunderground v.1.15,2013-05-29 20:08:00,
2013-05-29 15:11:00,65.6,63.5,29.63,SSE,168,6.0,6.0,93,0.00,,,0.31,56,Wunderground v.1.15,2013-05-29 20:11:00,
2013-05-29 15:12:00,65.6,63.5,29.63,South,178,4.0,6.0,93,0.00,,,0.31,56,Wunderground v.1.15,2013-05-29 20:12:00,
2013-05-29 15:13:00,65.6,63.5,29.63,South,173,5.0,6.0,93,0.00,,,0.31,56,Wunderground v.1.15,2013-05-29 20:13:00,
2013-05-29 15:14:00,65.6,63.5,29.63,South,173,5.0,6.0,93,0.00,,,0.31,60,Wunderground v.1.15,2013-05-29 20:14:00,
2013-05-29 15:16:00,65.7,63.6,29.63,SSE,151,4.0,6.0,93,0.00,,,0.31,69,Wunderground v.1.15,2013-05-29 20:16:00,
2013-05-29 15:17:00,65.7,63.6,29.63,SSE,151,5.0,6.0,93,0.00,,,0.31,65,Wunderground v.1.15,2013-05-29 20:17:00,
2013-05-29 15:18:00,65.8,63.7,29.63,SSE,153,6.0,6.0,93,0.00,,,0.31,51,Wunderground v.1.15,2013-05-29 20:18:00,
2013-05-29 15:19:00,65.7,63.6,29.63,SSE,147,5.0,6.0,93,0.00,,,0.31,46,Wunderground v.1.15,2013-05-29 20:19:00,
2013-05-29 15:21:00,65.7,63.6,29.63,SSE,150,4.0,5.0,93,0.00,,,0.31,42,Wunderground v.1.15,2013-05-29 20:21:00,
2013-05-29 15:22:00,65.7,63.6,29.62,SSE,151,2.0,5.0,93,0.00,,,0.31,51,Wunderground v.1.15,2013-05-29 20:22:00,
2013-05-29 15:23:00,65.6,63.5,29.62,SSE,163,1.0,5.0,93,0.00,,,0.31,63,Wunderground v.1.15,2013-05-29 20:23:00,
2013-05-29 15:24:00,65.6,63.2,29.62,South,181,1.0,5.0,92,0.00,,,0.31,77,Wunderground v.1.15,2013-05-29 20:24:00,
2013-05-29 15:27:00,65.8,63.4,29.62,South,175,4.0,5.0,92,0.00,,,0.31,83,Wunderground v.1.15,2013-05-29 20:27:00,
2013-05-29 15:28:00,65.8,63.4,29.62,South,180,3.0,5.0,92,0.00,,,0.31,83,Wunderground v.1.15,2013-05-29 20:28:00,
2013-05-29 15:30:00,65.9,63.5,29.62,SSE,152,8.0,8.0,92,0.00,,,0.31,84,Wunderground v.1.15,2013-05-29 20:30:00,
2013-05-29 15:31:00,66.1,64.0,29.62,SSE,150,5.0,8.0,93,0.00,,,0.31,111,Wunderground v.1.15,2013-05-29 20:31:00,
2013-05-29 15:34:00,66.3,63.9,29.62,SSE,158,3.0,8.0,92,0.00,,,0.31,102,Wunderground v.1.15,2013-05-29 20:34:00,
2013-05-29 15:36:00,66.2,63.5,29.62,South,169,3.0,8.0,91,0.00,,,0.31,123,Wunderground v.1.15,2013-05-29 20:36:00,
2013-05-29 15:37:00,66.3,63.6,29.62,SSE,150,7.0,8.0,91,0.00,,,0.31,137,Wunderground v.1.15,2013-05-29 20:37:00,
2013-05-29 15:40:00,66.3,63.6,29.61,SSE,147,4.0,5.0,91,0.00,,,0.31,120,Wunderground v.1.15,2013-05-29 20:40:00,
2013-05-29 15:41:00,66.3,63.6,29.61,SE,142,3.0,5.0,91,0.00,,,0.31,120,Wunderground v.1.15,2013-05-29 20:41:00,
2013-05-29 15:42:00,66.3,63.6,29.61,SE,142,3.0,5.0,91,0.00,,,0.31,120,Wunderground v.1.15,2013-05-29 20:42:00,
2013-05-29 15:44:00,66.1,63.4,29.61,SE,142,0.0,5.0,91,0.00,,,0.31,121,Wunderground v.1.15,2013-05-29 20:44:00,
2013-05-29 15:46:00,66.1,63.4,29.60,SE,142,2.0,5.0,91,0.00,,,0.31,120,Wunderground v.1.15,2013-05-29 20:46:00,
2013-05-29 15:47:00,66.1,63.4,29.60,SE,142,3.0,5.0,91,0.00,,,0.31,120,Wunderground v.1.15,2013-05-29 20:47:00,
2013-05-29 15:49:00,66.2,63.8,29.60,ESE,119,4.0,7.0,92,0.00,,,0.31,163,Wunderground v.1.15,2013-05-29 20:49:00,
2013-05-29 15:51:00,66.2,63.8,29.61,ESE,121,4.0,5.0,92,0.00,,,0.32,176,Wunderground v.1.15,2013-05-29 20:51:00,
2013-05-29 15:53:00,66.1,64.0,29.61,ESE,111,2.0,5.0,93,0.00,,,0.32,176,Wunderground v.1.15,2013-05-29 20:53:00,
2013-05-29 15:54:00,66.0,63.9,29.61,ESE,115,2.0,5.0,93,0.00,,,0.32,172,Wunderground v.1.15,2013-05-29 20:54:00,
2013-05-29 15:56:00,66.0,63.9,29.60,ESE,115,1.0,5.0,93,0.00,,,0.32,160,Wunderground v.1.15,2013-05-29 20:56:00,
2013-05-29 15:58:00,65.9,63.8,29.60,SE,130,5.0,5.0,93,0.00,,,0.32,165,Wunderground v.1.15,2013-05-29 20:58:00,
2013-05-29 15:59:00,65.9,63.8,29.60,ESE,122,4.0,5.0,93,0.00,,,0.32,165,Wunderground v.1.15,2013-05-29 20:59:00,
2013-05-29 16:00:00,65.9,63.8,29.60,ESE,111,4.0,5.0,93,0.00,,,0.32,206,Wunderground v.1.15,2013-05-29 21:00:00,
2013-05-29 16:03:00,65.9,63.8,29.59,ESE,111,0.0,5.0,93,0.00,,,0.32,225,Wunderground v.1.15,2013-05-29 21:03:00,
2013-05-29 16:04:00,65.9,63.8,29.59,ESE,111,0.0,5.0,93,0.00,,,0.32,227,Wunderground v.1.15,2013-05-29 21:04:00,
2013-05-29 16:05:00,65.9,63.8,29.59,ESE,111,0.0,5.0,93,0.00,,,0.32,221,Wunderground v.1.15,2013-05-29 21:05:00,
2013-05-29 16:08:00,66.2,64.4,29.60,ESE,109,3.0,5.0,94,0.00,,,0.32,123,Wunderground v.1.15,2013-05-29 21:08:00,
2013-05-29 16:10:00,66.2,64.1,29.61,ESE,104,2.0,2.0,93,0.00,,,0.32,93,Wunderground v.1.15,2013-05-29 21:10:00,
2013-05-29 16:13:00,66.0,63.9,29.62,East,97,1.0,4.0,93,0.00,,,0.32,70,Wunderground v.1.15,2013-05-29 21:13:00,
2013-05-29 16:14:00,66.0,63.9,29.62,East,97,1.0,4.0,93,0.00,,,0.32,70,Wunderground v.1.15,2013-05-29 21:14:00,
2013-05-29 16:16:00,65.9,63.8,29.62,East,97,0.0,4.0,93,0.00,,,0.32,30,Wunderground v.1.15,2013-05-29 21:16:00,
2013-05-29 16:17:00,65.8,63.7,29.62,East,97,1.0,4.0,93,0.00,,,0.32,16,Wunderground v.1.15,2013-05-29 21:17:00,
2013-05-29 16:19:00,65.8,63.7,29.62,East,97,0.0,4.0,93,0.00,,,0.32,11,Wunderground v.1.15,2013-05-29 21:19:00,
2013-05-29 16:20:00,65.8,63.7,29.62,East,97,0.0,1.0,93,0.00,,,0.32,11,Wunderground v.1.15,2013-05-29 21:20:00,
2013-05-29 16:22:00,65.7,63.6,29.63,East,97,0.0,1.0,93,0.00,,,0.32,11,Wunderground v.1.15,2013-05-29 21:22:00,
2013-05-29 16:23:00,65.7,63.6,29.63,East,98,0.0,1.0,93,0.00,,,0.32,11,Wunderground v.1.15,2013-05-29 21:23:00,
2013-05-29 16:25:00,65.8,64.0,29.63,WNW,296,3.0,4.0,94,0.00,,,0.32,12,Wunderground v.1.15,2013-05-29 21:25:00,
2013-05-29 16:28:00,66.0,64.2,29.63,WSW,240,8.0,8.0,94,0.00,,,0.32,9,Wunderground v.1.15,2013-05-29 21:28:00,
2013-05-29 16:31:00,66.1,64.0,29.62,WNW,285,9.0,10.0,93,0.00,,,0.32,9,Wunderground v.1.15,2013-05-29 21:31:00,
2013-05-29 16:32:00,66.2,64.1,29.61,WNW,286,7.0,10.0,93,0.00,,,0.32,9,Wunderground v.1.15,2013-05-29 21:32:00,
2013-05-29 16:34:00,66.2,64.1,29.61,WNW,303,8.0,10.0,93,0.00,,,0.32,14,Wunderground v.1.15,2013-05-29 21:34:00,
2013-05-29 16:37:00,66.3,63.9,29.63,WSW,251,7.0,10.0,92,0.00,,,0.32,14,Wunderground v.1.15,2013-05-29 21:37:00,
2013-05-29 16:38:00,66.4,64.0,29.61,NW,315,6.0,10.0,92,3.79,,,0.37,18,Wunderground v.1.15,2013-05-29 21:38:00,
2013-05-29 16:40:00,66.5,64.1,29.61,WNW,288,5.0,6.0,92,1.07,,,0.44,37,Wunderground v.1.15,2013-05-29 21:40:00,
2013-05-29 16:42:00,66.4,64.0,29.61,NW,323,6.0,7.0,92,0.27,,,0.45,63,Wunderground v.1.15,2013-05-29 21:42:00,
2013-05-29 16:43:00,66.4,64.0,29.61,NW,304,6.0,7.0,92,0.27,,,0.46,74,Wunderground v.1.15,2013-05-29 21:43:00,
2013-05-29 16:44:00,66.3,63.9,29.61,WNW,300,7.0,8.0,92,0.27,,,0.46,60,Wunderground v.1.15,2013-05-29 21:44:00,
2013-05-29 16:45:00,66.3,63.9,29.61,West,277,10.0,10.0,92,0.28,,,0.47,44,Wunderground v.1.15,2013-05-29 21:45:00,
2013-05-29 16:46:00,66.2,63.8,29.62,WNW,293,9.0,10.0,92,0.28,,,0.47,33,Wunderground v.1.15,2013-05-29 21:46:00,
2013-05-29 16:48:00,66.1,63.7,29.61,NW,312,10.0,11.0,92,0.13,,,0.47,40,Wunderground v.1.15,2013-05-29 21:48:00,
2013-05-29 16:49:00,66.1,63.7,29.61,NW,319,10.0,11.0,92,0.12,,,0.47,40,Wunderground v.1.15,2013-05-29 21:49:00,
2013-05-29 16:51:00,66.1,63.7,29.60,NW,312,10.0,10.0,92,0.09,,,0.47,40,Wunderground v.1.15,2013-05-29 21:51:00,
2013-05-29 16:54:00,66.0,63.6,29.60,WNW,295,6.0,10.0,92,0.06,,,0.47,21,Wunderground v.1.15,2013-05-29 21:54:00,
2013-05-29 16:55:00,66.0,63.6,29.60,WNW,292,6.0,10.0,92,0.06,,,0.47,21,Wunderground v.1.15,2013-05-29 21:55:00,
2013-05-29 16:56:00,66.0,63.6,29.61,NW,311,5.0,10.0,92,0.05,,,0.47,19,Wunderground v.1.15,2013-05-29 21:56:00,
2013-05-29 16:57:00,65.9,63.8,29.61,NW,315,5.0,10.0,93,0.05,,,0.47,21,Wunderground v.1.15,2013-05-29 21:57:00,
2013-05-29 16:59:00,65.9,63.8,29.60,NW,315,4.0,10.0,93,0.04,,,0.48,18,Wunderground v.1.15,2013-05-29 21:59:00,
2013-05-29 17:00:00,65.9,63.8,29.60,NW,317,2.0,7.0,93,0.04,,,0.48,16,Wunderground v.1.15,2013-05-29 22:00:00,
2013-05-29 17:02:00,65.9,63.8,29.60,NW,317,1.0,7.0,93,0.04,,,0.48,21,Wunderground v.1.15,2013-05-29 22:02:00,
2013-05-29 17:05:00,65.8,63.7,29.60,NW,311,0.0,7.0,93,0.04,,,0.48,23,Wunderground v.1.15,2013-05-29 22:05:00,
2013-05-29 17:06:00,65.8,63.7,29.60,NW,311,0.0,7.0,93,0.04,,,0.48,42,Wunderground v.1.15,2013-05-29 22:06:00,
2013-05-29 17:07:00,65.7,63.6,29.60,NW,311,0.0,7.0,93,0.08,,,0.49,77,Wunderground v.1.15,2013-05-29 22:07:00,
2013-05-29 17:11:00,66.0,64.2,29.60,NW,313,4.0,4.0,94,0.08,,,0.49,209,Wunderground v.1.15,2013-05-29 22:11:00,
2013-05-29 17:12:00,66.0,64.2,29.60,NW,313,3.0,4.0,94,0.08,,,0.49,209,Wunderground v.1.15,2013-05-29 22:12:00,
2013-05-29 17:13:00,66.2,64.7,29.60,NW,311,5.0,5.0,95,0.08,,,0.49,234,Wunderground v.1.15,2013-05-29 22:13:00,
2013-05-29 17:16:00,66.3,64.5,29.60,NW,311,2.0,5.0,94,0.06,,,0.49,234,Wunderground v.1.15,2013-05-29 22:16:00,
2013-05-29 17:17:00,66.4,64.6,29.60,NW,311,0.0,5.0,94,0.05,,,0.49,271,Wunderground v.1.15,2013-05-29 22:17:00,
2013-05-29 17:18:00,66.5,64.7,29.60,NW,311,0.0,5.0,94,0.05,,,0.49,276,Wunderground v.1.15,2013-05-29 22:18:00,
2013-05-29 17:19:00,66.5,64.7,29.60,NW,312,0.0,5.0,94,0.05,,,0.49,276,Wunderground v.1.15,2013-05-29 22:19:00,
2013-05-29 17:22:00,66.7,64.9,29.60,NW,311,2.0,3.0,94,0.04,,,0.49,246,Wunderground v.1.15,2013-05-29 22:22:00,
2013-05-29 17:23:00,66.7,64.9,29.60,NW,309,4.0,4.0,94,0.04,,,0.49,236,Wunderground v.1.15,2013-05-29 22:23:00,
2013-05-29 17:25:00,66.8,64.7,29.60,NW,311,4.0,6.0,93,0.00,,,0.49,221,Wunderground v.1.15,2013-05-29 22:25:00,
2013-05-29 17:28:00,67.0,64.9,29.60,NW,308,6.0,6.0,93,0.00,,,0.49,174,Wunderground v.1.15,2013-05-29 22:28:00,
2013-05-29 17:30:00,67.1,64.7,29.59,NW,315,0.0,3.0,92,0.00,,,0.49,172,Wunderground v.1.15,2013-05-29 22:30:00,
2013-05-29 17:32:00,67.1,64.7,29.59,NW,315,0.0,3.0,92,0.00,,,0.49,153,Wunderground v.1.15,2013-05-29 22:32:00,
2013-05-29 17:34:00,67.0,64.9,29.60,NW,315,0.0,3.0,93,0.00,,,0.49,102,Wunderground v.1.15,2013-05-29 22:34:00,
2013-05-29 17:35:00,67.1,65.0,29.60,NW,315,0.0,3.0,93,0.00,,,0.49,81,Wunderground v.1.15,2013-05-29 22:35:00,
2013-05-29 17:36:00,67.1,65.0,29.60,NW,315,0.0,3.0,93,0.00,,,0.49,77,Wunderground v.1.15,2013-05-29 22:36:00,
2013-05-29 17:37:00,67.0,64.9,29.60,NW,315,0.0,3.0,93,0.00,,,0.49,111,Wunderground v.1.15,2013-05-29 22:37:00,
2013-05-29 17:39:00,67.1,65.0,29.60,NW,315,0.0,3.0,93,0.00,,,0.49,169,Wunderground v.1.15,2013-05-29 22:39:00,
2013-05-29 17:40:00,67.1,65.0,29.60,NW,315,0.0,0.0,93,0.00,,,0.49,186,Wunderground v.1.15,2013-05-29 22:40:00,
2013-05-29 17:42:00,67.1,65.0,29.60,NNW,330,2.0,3.0,93,0.00,,,0.49,223,Wunderground v.1.15,2013-05-29 22:42:00,
2013-05-29 17:44:00,67.2,65.1,29.59,NNW,333,0.0,3.0,93,0.00,,,0.49,225,Wunderground v.1.15,2013-05-29 22:44:00,
2013-05-29 17:45:00,67.4,65.3,29.59,NNW,338,0.0,3.0,93,0.00,,,0.49,192,Wunderground v.1.15,2013-05-29 22:45:00,
2013-05-29 17:47:00,67.4,65.3,29.59,North,349,2.0,3.0,93,0.00,,,0.49,209,Wunderground v.1.15,2013-05-29 22:47:00,
2013-05-29 17:48:00,67.5,65.4,29.59,North,355,1.0,3.0,93,0.00,,,0.49,239,Wunderground v.1.15,2013-05-29 22:48:00,
2013-05-29 17:51:00,67.5,65.4,29.59,NNE,17,0.0,1.0,93,0.00,,,0.49,285,Wunderground v.1.15,2013-05-29 22:51:00,
2013-05-29 17:52:00,67.7,65.6,29.59,NNE,17,0.0,1.0,93,0.00,,,0.49,237,Wunderground v.1.15,2013-05-29 22:52:00,
2013-05-29 17:53:00,67.7,65.6,29.59,NNE,17,0.0,1.0,93,0.00,,,0.49,221,Wunderground v.1.15,2013-05-29 22:53:00,
2013-05-29 17:54:00,67.7,65.6,29.59,NNE,17,0.0,1.0,93,0.00,,,0.49,221,Wunderground v.1.15,2013-05-29 22:54:00,
2013-05-29 17:55:00,67.7,65.6,29.58,NNE,17,0.0,1.0,93,0.00,,,0.49,193,Wunderground v.1.15,2013-05-29 22:55:00,
2013-05-29 17:56:00,67.6,65.5,29.58,NNE,17,0.0,1.0,93,0.00,,,0.49,188,Wunderground v.1.15,2013-05-29 22:56:00,
2013-05-29 17:58:00,67.7,65.6,29.58,NNE,17,0.0,1.0,93,0.00,,,0.49,188,Wunderground v.1.15,2013-05-29 22:58:00,
2013-05-29 18:01:00,67.4,65.3,29.58,ENE,67,3.0,4.0,93,0.00,,,0.49,364,Wunderground v.1.15,2013-05-29 23:01:00,
2013-05-29 18:02:00,67.4,65.3,29.58,ENE,71,3.0,4.0,93,0.00,,,0.49,364,Wunderground v.1.15,2013-05-29 23:02:00,
2013-05-29 18:03:00,67.5,65.7,29.58,East,80,5.0,6.0,94,0.00,,,0.49,367,Wunderground v.1.15,2013-05-29 23:03:00,
2013-05-29 18:04:00,67.6,65.8,29.58,East,80,2.0,6.0,94,0.00,,,0.49,272,Wunderground v.1.15,2013-05-29 23:04:00,
2013-05-29 18:07:00,67.8,66.0,29.58,East,83,1.0,6.0,94,0.00,,,0.49,216,Wunderground v.1.15,2013-05-29 23:07:00,
2013-05-29 18:08:00,67.8,66.0,29.58,ENE,78,3.0,6.0,94,0.00,,,0.49,188,Wunderground v.1.15,2013-05-29 23:08:00,
2013-05-29 18:09:00,67.8,65.7,29.58,East,82,2.0,6.0,93,0.00,,,0.49,188,Wunderground v.1.15,2013-05-29 23:09:00,
2013-05-29 18:10:00,67.8,65.7,29.58,ENE,69,3.0,3.0,93,0.00,,,0.49,188,Wunderground v.1.15,2013-05-29 23:10:00,
2013-05-29 18:13:00,67.7,65.6,29.58,East,90,3.0,5.0,93,0.00,,,0.49,148,Wunderground v.1.15,2013-05-29 23:13:00,
2013-05-29 18:15:00,67.8,65.7,29.58,East,90,3.0,5.0,93,0.00,,,0.49,141,Wunderground v.1.15,2013-05-29 23:15:00,
2013-05-29 18:16:00,67.8,65.7,29.58,East,90,5.0,5.0,93,0.00,,,0.49,141,Wunderground v.1.15,2013-05-29 23:16:00,
2013-05-29 18:18:00,67.7,65.6,29.58,East,84,3.0,5.0,93,0.00,,,0.49,111,Wunderground v.1.15,2013-05-29 23:18:00,
2013-05-29 18:21:00,67.7,65.6,29.58,East,94,5.0,5.0,93,0.00,,,0.49,107,Wunderground v.1.15,2013-05-29 23:21:00,
2013-05-29 18:22:00,67.6,65.5,29.58,East,96,3.0,6.0,93,0.00,,,0.49,116,Wunderground v.1.15,2013-05-29 23:22:00,
2013-05-29 18:26:00,67.7,65.9,29.58,East,96,6.0,8.0,94,0.00,,,0.49,339,Wunderground v.1.15,2013-05-29 23:26:00,
2013-05-29 18:27:00,67.8,66.0,29.58,East,80,6.0,8.0,94,0.00,,,0.49,339,Wunderground v.1.15,2013-05-29 23:27:00,
2013-05-29 18:28:00,67.8,66.0,29.58,East,98,6.0,8.0,94,0.00,,,0.49,322,Wunderground v.1.15,2013-05-29 23:28:00,
2013-05-29 18:29:00,67.9,66.1,29.58,ENE,74,5.0,8.0,94,0.00,,,0.49,341,Wunderground v.1.15,2013-05-29 23:29:00,
2013-05-29 18:31:00,68.0,66.2,29.58,East,94,6.0,8.0,94,0.00,,,0.49,330,Wunderground v.1.15,2013-05-29 23:31:00,
2013-05-29 18:32:00,68.0,66.2,29.58,ENE,75,5.0,8.0,94,0.00,,,0.49,311,Wunderground v.1.15,2013-05-29 23:32:00,
2013-05-29 18:33:00,68.0,66.2,29.57,East,88,6.0,8.0,94,0.00,,,0.49,332,Wunderground v.1.15,2013-05-29 23:33:00,
2013-05-29 18:34:00,68.0,66.2,29.57,ENE,74,4.0,8.0,94,0.00,,,0.49,332,Wunderground v.1.15,2013-05-29 23:34:00,
2013-05-29 18:37:00,68.2,66.1,29.57,East,79,5.0,9.0,93,0.00,,,0.49,336,Wunderground v.1.15,2013-05-29 23:37:00,
2013-05-29 18:40:00,68.3,66.2,29.57,ENE,78,4.0,6.0,93,0.00,,,0.49,272,Wunderground v.1.15,2013-05-29 23:40:00,
2013-05-29 18:41:00,68.3,66.2,29.57,East,94,7.0,7.0,93,0.00,,,0.49,197,Wunderground v.1.15,2013-05-29 23:41:00,
2013-05-29 18:42:00,68.3,66.2,29.57,East,98,7.0,8.0,93,0.00,,,0.49,197,Wunderground v.1.15,2013-05-29 23:42:00,
2013-05-29 18:44:00,68.3,66.2,29.57,East,89,9.0,9.0,93,0.00,,,0.49,148,Wunderground v.1.15,2013-05-29 23:44:00,
2013-05-29 18:45:00,68.3,66.2,29.57,ESE,109,8.0,9.0,93,0.00,,,0.49,148,Wunderground v.1.15,2013-05-29 23:45:00,
2013-05-29 18:46:00,68.3,66.2,29.57,ESE,105,7.0,9.0,93,0.00,,,0.49,148,Wunderground v.1.15,2013-05-29 23:46:00,
2013-05-29 18:50:00,68.1,66.0,29.57,ENE,69,11.0,11.0,93,0.00,,,0.49,139,Wunderground v.1.15,2013-05-29 23:50:00,
2013-05-29 18:51:00,68.1,66.0,29.57,East,90,9.0,11.0,93,0.00,,,0.49,146,Wunderground v.1.15,2013-05-29 23:51:00,
2013-05-29 18:53:00,68.0,65.9,29.57,ESE,105,8.0,12.0,93,0.00,,,0.49,148,Wunderground v.1.15,2013-05-29 23:53:00,
2013-05-29 18:56:00,67.9,65.8,29.57,ESE,103,11.0,14.0,93,0.00,,,0.49,139,Wunderground v.1.15,2013-05-29 23:56:00,
2013-05-29 18:57:00,67.9,65.8,29.57,East,82,5.0,14.0,93,0.00,,,0.49,139,Wunderground v.1.15,2013-05-29 23:57:00,
2013-05-29 18:58:00,67.9,65.8,29.57,ENE,75,3.0,14.0,93,0.00,,,0.49,130,Wunderground v.1.15,2013-05-29 23:58:00,
2013-05-29 19:02:00,67.9,65.8,29.58,East,92,6.0,8.0,93,0.00,,,0.49,72,Wunderground v.1.15,2013-05-30 00:02:00,
2013-05-29 19:03:00,67.9,65.8,29.58,ESE,107,5.0,8.0,93,0.00,,,0.49,65,Wunderground v.1.15,2013-05-30 00:03:00,
2013-05-29 19:06:00,67.8,65.7,29.58,East,99,5.0,9.0,93,0.00,,,0.49,67,Wunderground v.1.15,2013-05-30 00:06:00,
2013-05-29 19:07:00,67.7,65.6,29.58,East,93,6.0,9.0,93,0.00,,,0.49,72,Wunderground v.1.15,2013-05-30 00:07:00,
2013-05-29 19:08:00,67.7,65.6,29.58,East,93,7.0,9.0,93,0.00,,,0.49,86,Wunderground v.1.15,2013-05-30 00:08:00,
2013-05-29 19:11:00,67.6,65.5,29.58,East,98,5.0,9.0,93,0.00,,,0.49,91,Wunderground v.1.15,2013-05-30 00:11:00,
2013-05-29 19:12:00,67.7,65.9,29.58,ESE,102,3.0,9.0,94,0.00,,,0.49,86,Wunderground v.1.15,2013-05-30 00:12:00,
2013-05-29 19:13:00,67.7,65.9,29.58,ESE,115,10.0,11.0,94,0.00,,,0.49,84,Wunderground v.1.15,2013-05-30 00:13:00,
2013-05-29 19:14:00,67.6,65.8,29.58,East,100,7.0,11.0,94,0.00,,,0.49,84,Wunderground v.1.15,2013-05-30 00:14:00,
2013-05-29 19:16:00,67.7,65.9,29.58,East,96,6.0,11.0,94,0.00,,,0.49,90,Wunderground v.1.15,2013-05-30 00:16:00,
2013-05-29 19:18:00,67.7,65.9,29.58,ESE,113,9.0,11.0,94,0.00,,,0.49,97,Wunderground v.1.15,2013-05-30 00:18:00,
2013-05-29 19:20:00,67.7,65.9,29.58,ENE,74,7.0,7.0,94,0.00,,,0.49,70,Wunderground v.1.15,2013-05-30 00:20:00,
2013-05-29 19:21:00,67.7,65.9,29.58,East,90,3.0,7.0,94,0.00,,,0.49,70,Wunderground v.1.15,2013-05-30 00:21:00,
2013-05-29 19:22:00,67.7,65.9,29.58,East,84,7.0,7.0,94,0.00,,,0.49,72,Wunderground v.1.15,2013-05-30 00:22:00,
2013-05-29 19:24:00,67.7,65.9,29.58,ESE,111,8.0,9.0,94,0.00,,,0.49,70,Wunderground v.1.15,2013-05-30 00:24:00,
2013-05-29 19:26:00,67.7,65.9,29.58,ESE,106,4.0,9.0,94,0.00,,,0.49,54,Wunderground v.1.15,2013-05-30 00:26:00,
2013-05-29 19:27:00,67.7,65.9,29.57,ESE,102,8.0,9.0,94,0.00,,,0.49,44,Wunderground v.1.15,2013-05-30 00:27:00,
2013-05-29 19:32:00,67.6,65.8,29.57,ENE,78,5.0,8.0,94,0.00,,,0.49,32,Wunderground v.1.15,2013-05-30 00:32:00,
2013-05-29 19:33:00,67.6,65.8,29.57,ESE,103,8.0,10.0,94,0.00,,,0.49,32,Wunderground v.1.15,2013-05-30 00:33:00,
2013-05-29 19:34:00,67.6,65.8,29.57,ESE,106,7.0,10.0,94,0.00,,,0.49,25,Wunderground v.1.15,2013-05-30 00:34:00,
2013-05-29 19:38:00,67.5,65.7,29.57,East,89,11.0,11.0,94,0.00,,,0.49,14,Wunderground v.1.15,2013-05-30 00:38:00,
2013-05-29 19:39:00,67.5,65.7,29.57,ESE,108,4.0,11.0,94,0.00,,,0.49,12,Wunderground v.1.15,2013-05-30 00:39:00,
2013-05-29 19:40:00,67.5,65.7,29.57,ESE,123,8.0,11.0,94,0.00,,,0.49,12,Wunderground v.1.15,2013-05-30 00:40:00,
2013-05-29 19:43:00,67.4,65.6,29.57,East,87,7.0,9.0,94,0.00,,,0.49,9,Wunderground v.1.15,2013-05-30 00:43:00,
2013-05-29 19:44:00,67.4,65.6,29.58,ESE,103,9.0,10.0,94,0.00,,,0.49,9,Wunderground v.1.15,2013-05-30 00:44:00,
2013-05-29 19:46:00,67.4,65.6,29.58,East,91,11.0,11.0,94,0.00,,,0.49,9,Wunderground v.1.15,2013-05-30 00:46:00,
2013-05-29 19:47:00,67.4,65.3,29.58,ENE,73,10.0,11.0,93,0.00,,,0.49,9,Wunderground v.1.15,2013-05-30 00:47:00,
2013-05-29 19:49:00,67.4,65.6,29.57,ENE,69,10.0,13.0,94,0.00,,,0.49,11,Wunderground v.1.15,2013-05-30 00:49:00,
2013-05-29 19:50:00,67.4,65.6,29.57,East,85,8.0,9.0,94,0.00,,,0.49,11,Wunderground v.1.15,2013-05-30 00:50:00,
2013-05-29 19:52:00,67.4,65.6,29.57,East,101,10.0,10.0,94,0.00,,,0.49,11,Wunderground v.1.15,2013-05-30 00:52:00,
2013-05-29 19:53:00,67.4,65.6,29.57,East,86,6.0,10.0,94,0.00,,,0.49,11,Wunderground v.1.15,2013-05-30 00:53:00,
2013-05-29 19:55:00,67.4,65.6,29.58,East,86,5.0,10.0,94,0.00,,,0.49,11,Wunderground v.1.15,2013-05-30 00:55:00,
2013-05-29 19:57:00,67.4,65.6,29.58,ESE,110,8.0,10.0,94,0.00,,,0.49,9,Wunderground v.1.15,2013-05-30 00:57:00,
2013-05-29 19:58:00,67.4,65.6,29.58,ESE,104,2.0,10.0,94,0.00,,,0.49,7,Wunderground v.1.15,2013-05-30 00:58:00,
2013-05-29 20:00:00,67.4,65.6,29.58,ESE,110,4.0,7.0,94,0.00,,,0.49,9,Wunderground v.1.15,2013-05-30 01:00:00,
2013-05-29 20:01:00,67.4,65.6,29.58,ESE,107,5.0,7.0,94,0.00,,,0.49,9,Wunderground v.1.15,2013-05-30 01:01:00,
2013-05-29 20:02:00,67.4,65.6,29.58,East,98,6.0,7.0,94,0.00,,,0.49,9,Wunderground v.1.15,2013-05-30 01:02:00,
2013-05-29 20:03:00,67.4,65.6,29.58,East,93,5.0,7.0,94,0.00,,,0.49,9,Wunderground v.1.15,2013-05-30 01:03:00,
2013-05-29 20:06:00,67.4,65.6,29.58,ESE,109,7.0,8.0,94,0.00,,,0.49,11,Wunderground v.1.15,2013-05-30 01:06:00,
2013-05-29 20:07:00,67.4,65.6,29.58,East,94,5.0,8.0,94,0.00,,,0.49,11,Wunderground v.1.15,2013-05-30 01:07:00,
2013-05-29 20:09:00,67.4,65.6,29.59,ESE,115,8.0,8.0,94,0.00,,,0.49,11,Wunderground v.1.15,2013-05-30 01:09:00,
2013-05-29 20:11:00,67.4,65.6,29.59,East,101,8.0,10.0,94,0.00,,,0.49,12,Wunderground v.1.15,2013-05-30 01:11:00,
2013-05-29 20:13:00,67.4,65.9,29.58,East,93,5.0,10.0,95,0.00,,,0.49,12,Wunderground v.1.15,2013-05-30 01:13:00,
2013-05-29 20:14:00,67.4,65.6,29.59,East,80,10.0,10.0,94,0.00,,,0.49,11,Wunderground v.1.15,2013-05-30 01:14:00,
2013-05-29 20:17:00,67.4,65.9,29.59,East,85,8.0,10.0,95,0.00,,,0.49,9,Wunderground v.1.15,2013-05-30 01:17:00,
2013-05-29 20:18:00,67.4,65.9,29.59,East,100,7.0,10.0,95,0.00,,,0.49,9,Wunderground v.1.15,2013-05-30 01:18:00,
2013-05-29 20:19:00,67.5,66.0,29.59,East,93,7.0,11.0,95,0.00,,,0.49,9,Wunderground v.1.15,2013-05-30 01:19:00,
2013-05-29 20:20:00,67.5,66.0,29.59,East,98,5.0,7.0,95,0.00,,,0.49,9,Wunderground v.1.15,2013-05-30 01:20:00,
2013-05-29 20:24:00,67.5,66.0,29.59,East,96,5.0,9.0,95,0.00,,,0.49,7,Wunderground v.1.15,2013-05-30 01:24:00,
2013-05-29 20:25:00,67.5,66.0,29.59,ESE,108,5.0,9.0,95,0.00,,,0.49,7,Wunderground v.1.15,2013-05-30 01:25:00,
2013-05-29 20:28:00,67.6,66.1,29.59,East,96,7.0,9.0,95,0.00,,,0.49,5,Wunderground v.1.15,2013-05-30 01:28:00,
2013-05-29 20:30:00,67.6,66.1,29.59,ESE,106,5.0,6.0,95,0.00,,,0.49,0,Wunderground v.1.15,2013-05-30 01:30:00,
2013-05-29 20:32:00,67.6,66.1,29.59,ESE,107,4.0,6.0,95,0.00,,,0.49,0,Wunderground v.1.15,2013-05-30 01:32:00,
2013-05-29 20:33:00,67.6,66.1,29.59,ESE,108,2.0,6.0,95,0.00,,,0.49,0,Wunderground v.1.15,2013-05-30 01:33:00,
2013-05-29 20:35:00,67.7,66.2,29.59,ESE,111,4.0,7.0,95,0.00,,,0.49,0,Wunderground v.1.15,2013-05-30 01:35:00,
2013-05-29 20:36:00,67.7,66.2,29.59,ESE,120,7.0,7.0,95,0.00,,,0.49,0,Wunderground v.1.15,2013-05-30 01:36:00,
2013-05-29 20:37:00,67.7,66.2,29.59,ESE,113,5.0,7.0,95,0.00,,,0.49,0,Wunderground v.1.15,2013-05-30 01:37:00,
2013-05-29 20:39:00,67.8,66.3,29.60,ESE,114,4.0,7.0,95,0.00,,,0.49,0,Wunderground v.1.15,2013-05-30 01:39:00,
2013-05-29 20:41:00,67.8,66.3,29.59,ESE,115,5.0,6.0,95,0.00,,,0.49,0,Wunderground v.1.15,2013-05-30 01:41:00,
2013-05-29 20:42:00,67.9,66.4,29.59,SE,129,5.0,6.0,95,0.00,,,0.49,0,Wunderground v.1.15,2013-05-30 01:42:00,
2013-05-29 20:43:00,67.9,66.4,29.59,ESE,113,3.0,6.0,95,0.00,,,0.49,0,Wunderground v.1.15,2013-05-30 01:43:00,
2013-05-29 20:44:00,68.0,66.5,29.59,SE,136,6.0,6.0,95,0.00,,,0.49,0,Wunderground v.1.15,2013-05-30 01:44:00,
2013-05-29 20:46:00,68.0,66.5,29.59,ESE,116,5.0,6.0,95,0.00,,,0.49,0,Wunderground v.1.15,2013-05-30 01:46:00,
2013-05-29 20:47:00,68.0,66.5,29.59,ESE,114,4.0,6.0,95,0.00,,,0.49,0,Wunderground v.1.15,2013-05-30 01:47:00,
2013-05-29 20:48:00,68.1,66.6,29.59,SE,126,7.0,8.0,95,0.00,,,0.49,0,Wunderground v.1.15,2013-05-30 01:48:00,
2013-05-29 20:49:00,68.1,66.6,29.59,ESE,123,9.0,9.0,95,0.00,,,0.49,0,Wunderground v.1.15,2013-05-30 01:49:00,
2013-05-29 20:51:00,68.2,66.7,29.59,ESE,115,9.0,9.0,95,0.00,,,0.49,0,Wunderground v.1.15,2013-05-30 01:51:00,
2013-05-29 20:52:00,68.2,66.7,29.59,ESE,103,5.0,9.0,95,0.00,,,0.49,0,Wunderground v.1.15,2013-05-30 01:52:00,
2013-05-29 20:53:00,68.3,66.8,29.59,ESE,107,8.0,9.0,95,0.00,,,0.49,0,Wunderground v.1.15,2013-05-30 01:53:00,
2013-05-29 20:55:00,68.3,66.8,29.59,ESE,119,4.0,9.0,95,0.00,,,0.49,0,Wunderground v.1.15,2013-05-30 01:55:00,
2013-05-29 20:56:00,68.4,66.9,29.59,ESE,119,5.0,9.0,95,0.00,,,0.49,0,Wunderground v.1.15,2013-05-30 01:56:00,
2013-05-29 20:57:00,68.4,66.9,29.59,ESE,113,9.0,9.0,95,0.00,,,0.49,0,Wunderground v.1.15,2013-05-30 01:57:00,
2013-05-29 20:58:00,68.4,66.9,29.59,ESE,121,7.0,9.0,95,0.00,,,0.49,0,Wunderground v.1.15,2013-05-30 01:58:00,
2013-05-29 21:00:00,68.5,67.0,29.59,ESE,122,7.0,8.0,95,0.00,,,0.49,0,Wunderground v.1.15,2013-05-30 02:00:00,
2013-05-29 21:01:00,68.5,67.0,29.59,SE,129,7.0,8.0,95,0.00,,,0.49,0,Wunderground v.1.15,2013-05-30 02:01:00,
2013-05-29 21:03:00,68.6,67.1,29.59,ESE,110,4.0,9.0,95,0.00,,,0.49,0,Wunderground v.1.15,2013-05-30 02:03:00,
2013-05-29 21:05:00,68.6,67.1,29.59,ESE,116,5.0,9.0,95,0.00,,,0.49,0,Wunderground v.1.15,2013-05-30 02:05:00,
2013-05-29 21:06:00,68.7,67.2,29.59,ESE,116,4.0,9.0,95,0.00,,,0.49,0,Wunderground v.1.15,2013-05-30 02:06:00,
2013-05-29 21:09:00,68.8,67.3,29.59,ESE,122,9.0,10.0,95,0.00,,,0.49,0,Wunderground v.1.15,2013-05-30 02:09:00,
2013-05-29 21:10:00,68.8,67.3,29.59,SE,135,6.0,7.0,95,0.00,,,0.49,0,Wunderground v.1.15,2013-05-30 02:10:00,
2013-05-29 21:11:00,68.8,67.3,29.59,ESE,121,11.0,11.0,95,0.00,,,0.49,0,Wunderground v.1.15,2013-05-30 02:11:00,
2013-05-29 21:13:00,69.0,67.5,29.59,ESE,121,8.0,11.0,95,0.00,,,0.49,0,Wunderground v.1.15,2013-05-30 02:13:00,
2013-05-29 21:16:00,69.2,67.7,29.59,ESE,121,7.0,11.0,95,0.00,,,0.49,0,Wunderground v.1.15,2013-05-30 02:16:00,
2013-05-29 21:17:00,69.3,67.5,29.59,SE,134,8.0,11.0,94,0.00,,,0.49,0,Wunderground v.1.15,2013-05-30 02:17:00,
2013-05-29 21:20:00,69.5,67.7,29.59,SE,127,5.0,7.0,94,0.00,,,0.49,0,Wunderground v.1.15,2013-05-30 02:20:00,
2013-05-29 21:21:00,69.7,67.9,29.59,SE,133,6.0,9.0,94,0.00,,,0.49,0,Wunderground v.1.15,2013-05-30 02:21:00,
2013-05-29 21:22:00,69.7,67.9,29.59,SE,138,7.0,9.0,94,0.00,,,0.49,0,Wunderground v.1.15,2013-05-30 02:22:00,
2013-05-29 21:25:00,70.0,67.9,29.59,SE,134,7.0,9.0,93,0.00,,,0.49,0,Wunderground v.1.15,2013-05-30 02:25:00,
2013-05-29 21:27:00,70.1,68.0,29.59,SSE,148,7.0,9.0,93,0.00,,,0.49,0,Wunderground v.1.15,2013-05-30 02:27:00,
2013-05-29 21:28:00,70.1,68.0,29.59,ESE,123,5.0,9.0,93,0.00,,,0.49,0,Wunderground v.1.15,2013-05-30 02:28:00,
2013-05-29 21:29:00,70.2,68.1,29.59,SE,142,8.0,9.0,93,0.00,,,0.49,0,Wunderground v.1.15,2013-05-30 02:29:00,
2013-05-29 21:32:00,70.4,68.0,29.59,SSE,153,10.0,11.0,92,0.00,,,0.49,0,Wunderground v.1.15,2013-05-30 02:32:00,
2013-05-29 21:33:00,70.4,68.0,29.59,SE,139,7.0,11.0,92,0.00,,,0.49,0,Wunderground v.1.15,2013-05-30 02:33:00,
2013-05-29 21:35:00,70.6,67.8,29.59,SE,141,7.0,11.0,91,0.00,,,0.49,0,Wunderground v.1.15,2013-05-30 02:35:00,
2013-05-29 21:36:00,70.7,67.9,29.59,SE,138,5.0,11.0,91,0.00,,,0.49,0,Wunderground v.1.15,2013-05-30 02:36:00,
2013-05-29 21:37:00,70.7,67.9,29.59,SSE,150,7.0,11.0,91,0.00,,,0.49,0,Wunderground v.1.15,2013-05-30 02:37:00,
2013-05-29 21:38:00,70.8,68.0,29.59,SE,139,6.0,11.0,91,0.00,,,0.49,0,Wunderground v.1.15,2013-05-30 02:38:00,
2013-05-29 21:39:00,70.8,68.0,29.59,SE,128,6.0,11.0,91,0.00,,,0.49,0,Wunderground v.1.15,2013-05-30 02:39:00,
2013-05-29 21:41:00,70.9,67.8,29.59,SE,141,7.0,7.0,90,0.00,,,0.49,0,Wunderground v.1.15,2013-05-30 02:41:00,
2013-05-29 21:42:00,71.0,67.9,29.59,SE,142,8.0,8.0,90,0.00,,,0.49,0,Wunderground v.1.15,2013-05-30 02:42:00,
2013-05-29 21:44:00,71.1,68.0,29.59,SE,144,7.0,9.0,90,0.00,,,0.49,0,Wunderground v.1.15,2013-05-30 02:44:00,
2013-05-29 21:46:00,71.1,68.0,29.60,SE,134,9.0,9.0,90,0.00,,,0.49,0,Wunderground v.1.15,2013-05-30 02:46:00,
2013-05-29 21:47:00,71.2,68.1,29.60,SE,135,9.0,9.0,90,0.00,,,0.49,0,Wunderground v.1.15,2013-05-30 02:47:00,
2013-05-29 21:48:00,71.2,68.1,29.59,SSE,148,9.0,9.0,90,0.00,,,0.49,0,Wunderground v.1.15,2013-05-30 02:48:00,
2013-05-29 21:49:00,71.2,68.1,29.59,SE,128,6.0,9.0,90,0.00,,,0.49,0,Wunderground v.1.15,2013-05-30 02:49:00,
2013-05-29 21:51:00,71.2,67.8,29.59,SSE,147,8.0,11.0,89,0.00,,,0.49,0,Wunderground v.1.15,2013-05-30 02:51:00,
2013-05-29 21:53:00,71.3,67.9,29.59,SSE,152,7.0,11.0,89,0.00,,,0.49,0,Wunderground v.1.15,2013-05-30 02:53:00,
2013-05-29 21:54:00,71.3,67.9,29.60,SSE,158,8.0,14.0,89,0.00,,,0.49,0,Wunderground v.1.15,2013-05-30 02:54:00,
2013-05-29 21:56:00,71.4,68.0,29.59,SSE,152,11.0,14.0,89,0.00,,,0.49,0,Wunderground v.1.15,2013-05-30 02:56:00,
2013-05-29 21:58:00,71.5,68.1,29.59,SSE,147,10.0,14.0,89,0.00,,,0.49,0,Wunderground v.1.15,2013-05-30 02:58:00,
2013-05-29 21:59:00,71.5,67.8,29.60,SSE,151,8.0,14.0,88,0.00,,,0.49,0,Wunderground v.1.15,2013-05-30 02:59:00,
2013-05-29 22:00:00,71.5,67.8,29.60,SE,146,9.0,9.0,88,0.00,,,0.49,0,Wunderground v.1.15,2013-05-30 03:00:00,
2013-05-29 22:02:00,71.6,67.9,29.60,SSE,161,9.0,13.0,88,0.00,,,0.49,0,Wunderground v.1.15,2013-05-30 03:02:00,
2013-05-29 22:04:00,71.6,67.9,29.60,SE,135,15.0,17.0,88,0.00,,,0.49,0,Wunderground v.1.15,2013-05-30 03:04:00,
2013-05-29 22:06:00,71.8,67.7,29.60,SSE,151,18.0,24.0,87,0.00,,,0.49,0,Wunderground v.1.15,2013-05-30 03:06:00,
2013-05-29 22:07:00,71.9,67.8,29.60,SSE,152,18.0,24.0,87,0.00,,,0.49,0,Wunderground v.1.15,2013-05-30 03:07:00,
2013-05-29 22:10:00,71.7,67.6,29.60,SSE,161,12.0,14.0,87,0.00,,,0.49,0,Wunderground v.1.15,2013-05-30 03:10:00,
2013-05-29 22:11:00,71.5,67.4,29.59,SSE,167,9.0,14.0,87,0.00,,,0.49,0,Wunderground v.1.15,2013-05-30 03:11:00,
2013-05-29 22:12:00,71.2,67.5,29.59,SSE,167,10.0,14.0,88,0.00,,,0.49,0,Wunderground v.1.15,2013-05-30 03:12:00,
2013-05-29 22:15:00,70.7,67.3,29.59,South,171,12.0,14.0,89,0.00,,,0.49,0,Wunderground v.1.15,2013-05-30 03:15:00,
2013-05-29 22:16:00,70.7,67.3,29.59,SSE,159,8.0,14.0,89,0.00,,,0.49,0,Wunderground v.1.15,2013-05-30 03:16:00,
2013-05-29 22:18:00,70.4,67.3,29.59,SSE,166,8.0,14.0,90,0.00,,,0.49,0,Wunderground v.1.15,2013-05-30 03:18:00,
2013-05-29 22:20:00,70.2,67.1,29.59,SSE,152,7.0,11.0,90,0.00,,,0.49,0,Wunderground v.1.15,2013-05-30 03:20:00,
2013-05-29 22:21:00,70.1,67.0,29.59,SSE,164,7.0,11.0,90,0.00,,,0.49,0,Wunderground v.1.15,2013-05-30 03:21:00,
2013-05-29 22:23:00,70.1,67.0,29.59,SSE,155,9.0,11.0,90,0.00,,,0.49,0,Wunderground v.1.15,2013-05-30 03:23:00,
2013-05-29 22:24:00,70.0,67.3,29.58,SE,142,12.0,12.0,91,0.00,,,0.49,0,Wunderground v.1.15,2013-05-30 03:24:00,
2013-05-29 22:26:00,70.0,67.3,29.58,SSE,164,9.0,12.0,91,0.00,,,0.49,0,Wunderground v.1.15,2013-05-30 03:26:00,
2013-05-29 22:28:00,70.0,67.3,29.58,SSE,159,9.0,12.0,91,0.00,,,0.49,0,Wunderground v.1.15,2013-05-30 03:28:00,
2013-05-29 22:31:00,69.9,67.2,29.58,SSE,150,6.0,11.0,91,0.00,,,0.49,0,Wunderground v.1.15,2013-05-30 03:31:00,
2013-05-29 22:32:00,69.9,67.2,29.58,SE,142,8.0,11.0,91,0.00,,,0.49,0,Wunderground v.1.15,2013-05-30 03:32:00,
2013-05-29 22:34:00,69.9,67.2,29.58,SSE,150,8.0,12.0,91,0.00,,,0.49,0,Wunderground v.1.15,2013-05-30 03:34:00,
2013-05-29 22:36:00,69.8,67.1,29.58,SSE,147,11.0,12.0,91,0.00,,,0.49,0,Wunderground v.1.15,2013-05-30 03:36:00,
2013-05-29 22:37:00,69.8,67.1,29.58,SSE,148,8.0,12.0,91,0.00,,,0.49,0,Wunderground v.1.15,2013-05-30 03:37:00,
2013-05-29 22:42:00,69.8,67.1,29.58,SE,133,8.0,11.0,91,0.00,,,0.49,0,Wunderground v.1.15,2013-05-30 03:42:00,
2013-05-29 22:43:00,69.9,67.2,29.58,SE,130,10.0,13.0,91,0.00,,,0.49,0,Wunderground v.1.15,2013-05-30 03:43:00,
2013-05-29 22:44:00,69.9,67.2,29.58,SE,140,11.0,13.0,91,0.00,,,0.49,0,Wunderground v.1.15,2013-05-30 03:44:00,
2013-05-29 22:47:00,70.2,67.1,29.57,SE,134,10.0,13.0,90,0.00,,,0.49,0,Wunderground v.1.15,2013-05-30 03:47:00,
2013-05-29 22:48:00,70.3,67.2,29.57,SE,140,11.0,13.0,90,0.00,,,0.49,0,Wunderground v.1.15,2013-05-30 03:48:00,
2013-05-29 22:49:00,70.4,67.3,29.57,SE,135,9.0,13.0,90,0.00,,,0.49,0,Wunderground v.1.15,2013-05-30 03:49:00,
2013-05-29 22:52:00,70.6,67.5,29.57,SE,139,7.0,12.0,90,0.00,,,0.49,0,Wunderground v.1.15,2013-05-30 03:52:00,
2013-05-29 22:53:00,70.6,67.2,29.57,SE,135,8.0,12.0,89,0.00,,,0.49,0,Wunderground v.1.15,2013-05-30 03:53:00,
2013-05-29 22:54:00,70.7,67.3,29.57,ESE,121,10.0,12.0,89,0.00,,,0.49,0,Wunderground v.1.15,2013-05-30 03:54:00,
2013-05-29 22:55:00,70.7,67.3,29.57,SE,141,9.0,12.0,89,0.00,,,0.49,0,Wunderground v.1.15,2013-05-30 03:55:00,
2013-05-29 22:58:00,70.8,67.4,29.57,SE,142,12.0,12.0,89,0.00,,,0.49,0,Wunderground v.1.15,2013-05-30 03:58:00,
2013-05-29 22:59:00,70.8,67.4,29.57,SE,138,10.0,12.0,89,0.00,,,0.49,0,Wunderground v.1.15,2013-05-30 03:59:00,
2013-05-29 23:01:00,70.8,67.4,29.57,SE,143,8.0,11.0,89,0.00,,,0.49,0,Wunderground v.1.15,2013-05-30 04:01:00,
2013-05-29 23:02:00,70.8,67.4,29.57,SE,132,7.0,14.0,89,0.00,,,0.49,0,Wunderground v.1.15,2013-05-30 04:02:00,
2013-05-29 23:03:00,70.8,67.4,29.57,SE,134,12.0,14.0,89,0.00,,,0.49,0,Wunderground v.1.15,2013-05-30 04:03:00,
2013-05-29 23:06:00,70.9,67.2,29.56,SE,136,10.0,15.0,88,0.00,,,0.49,0,Wunderground v.1.15,2013-05-30 04:06:00,
2013-05-29 23:07:00,70.9,67.2,29.56,SE,142,9.0,15.0,88,0.00,,,0.49,0,Wunderground v.1.15,2013-05-30 04:07:00,
2013-05-29 23:08:00,71.0,67.3,29.56,SE,127,8.0,15.0,88,0.00,,,0.49,0,Wunderground v.1.15,2013-05-30 04:08:00,
2013-05-29 23:09:00,71.1,67.4,29.56,SE,128,8.0,15.0,88,0.00,,,0.49,0,Wunderground v.1.15,2013-05-30 04:09:00,
2013-05-29 23:11:00,71.2,67.5,29.56,SE,126,11.0,15.0,88,0.00,,,0.49,0,Wunderground v.1.15,2013-05-30 04:11:00,
2013-05-29 23:13:00,71.2,67.5,29.56,SE,145,9.0,15.0,88,0.00,,,0.49,0,Wunderground v.1.15,2013-05-30 04:13:00,
2013-05-29 23:17:00,71.3,67.2,29.56,SE,144,9.0,15.0,87,0.00,,,0.49,0,Wunderground v.1.15,2013-05-30 04:17:00,
2013-05-29 23:18:00,71.3,67.2,29.56,SE,138,6.0,15.0,87,0.00,,,0.49,0,Wunderground v.1.15,2013-05-30 04:18:00,
2013-05-29 23:22:00,71.3,67.2,29.56,SE,145,8.0,11.0,87,0.00,,,0.49,0,Wunderground v.1.15,2013-05-30 04:22:00,
2013-05-29 23:23:00,71.3,67.2,29.56,SE,130,9.0,11.0,87,0.00,,,0.49,0,Wunderground v.1.15,2013-05-30 04:23:00,
2013-05-29 23:24:00,71.3,67.2,29.56,SE,136,8.0,11.0,87,0.00,,,0.49,0,Wunderground v.1.15,2013-05-30 04:24:00,
2013-05-29 23:28:00,71.3,67.2,29.56,SE,141,7.0,12.0,87,0.00,,,0.49,0,Wunderground v.1.15,2013-05-30 04:28:00,
2013-05-29 23:29:00,71.3,67.2,29.56,SE,136,11.0,12.0,87,0.00,,,0.49,0,Wunderground v.1.15,2013-05-30 04:29:00,
2013-05-29 23:31:00,71.3,67.2,29.56,SE,138,9.0,13.0,87,0.00,,,0.49,0,Wunderground v.1.15,2013-05-30 04:31:00,
2013-05-29 23:32:00,71.4,67.3,29.56,SSE,148,9.0,13.0,87,0.00,,,0.49,0,Wunderground v.1.15,2013-05-30 04:32:00,
2013-05-29 23:33:00,71.4,67.3,29.56,SSE,153,9.0,13.0,87,0.00,,,0.49,0,Wunderground v.1.15,2013-05-30 04:33:00,
2013-05-29 23:35:00,71.5,67.4,29.56,SE,146,15.0,15.0,87,0.00,,,0.49,0,Wunderground v.1.15,2013-05-30 04:35:00,
2013-05-29 23:37:00,71.6,67.5,29.56,SE,146,11.0,17.0,87,0.00,,,0.49,0,Wunderground v.1.15,2013-05-30 04:37:00,
2013-05-29 23:38:00,71.7,67.3,29.56,SSE,159,13.0,17.0,86,0.00,,,0.49,0,Wunderground v.1.15,2013-05-30 04:38:00,
2013-05-29 23:40:00,71.7,67.3,29.56,SSE,153,7.0,16.0,86,0.00,,,0.49,0,Wunderground v.1.15,2013-05-30 04:40:00,
2013-05-29 23:42:00,71.7,67.6,29.56,SE,139,8.0,16.0,87,0.00,,,0.49,0,Wunderground v.1.15,2013-05-30 04:42:00,
2013-05-29 23:43:00,71.6,67.5,29.56,SE,140,11.0,16.0,87,0.00,,,0.49,0,Wunderground v.1.15,2013-05-30 04:43:00,
2013-05-29 23:44:00,71.6,67.5,29.56,SE,136,6.0,16.0,87,0.00,,,0.49,0,Wunderground v.1.15,2013-05-30 04:44:00,
2013-05-29 23:46:00,71.6,67.2,29.56,SE,140,8.0,16.0,86,0.00,,,0.49,0,Wunderground v.1.15,2013-05-30 04:46:00,
2013-05-29 23:47:00,71.5,67.4,29.56,SE,146,6.0,16.0,87,0.00,,,0.49,0,Wunderground v.1.15,2013-05-30 04:47:00,
2013-05-29 23:48:00,71.5,67.4,29.56,SE,141,12.0,16.0,87,0.00,,,0.49,0,Wunderground v.1.15,2013-05-30 04:48:00,
2013-05-29 23:49:00,71.4,67.3,29.56,SE,144,8.0,16.0,87,0.00,,,0.49,0,Wunderground v.1.15,2013-05-30 04:49:00,
2013-05-29 23:50:00,71.4,67.3,29.56,SE,146,6.0,10.0,87,0.00,,,0.49,0,Wunderground v.1.15,2013-05-30 04:50:00,
2013-05-29 23:52:00,71.2,67.1,29.55,SE,143,8.0,10.0,87,0.00,,,0.49,0,Wunderground v.1.15,2013-05-30 04:52:00,
2013-05-29 23:54:00,71.2,67.1,29.55,SE,144,8.0,12.0,87,0.00,,,0.49,0,Wunderground v.1.15,2013-05-30 04:54:00,
2013-05-29 23:55:00,71.2,67.5,29.55,SSE,156,7.0,12.0,88,0.00,,,0.49,0,Wunderground v.1.15,2013-05-30 04:55:00,
2013-05-29 23:56:00,71.2,67.5,29.55,SE,146,8.0,12.0,88,0.00,,,0.49,0,Wunderground v.1.15,2013-05-30 04:56:00,
2013-05-29 23:58:00,71.1,67.4,29.55,SSE,155,4.0,13.0,88,0.00,,,0.00,0,Wunderground v.1.15,2013-05-30 04:58:00,
2013-05-29 23:59:00,71.1,67.4,29.55,SE,136,5.0,13.0,88,0.00,,,0.00,0,Wunderground v.1.15,2013-05-30 04:59:00,